I-5 : 3.5 Miles South of SR-198 Atmospheric Data: 06/24/2022 Summary  Detailed Graphs  Station List

  Temperature     Wind Precipitation Visibility
Timestamp Air Wet
Bulb
Dew-
point
24-hr
Max
24-hr
Min
Relative
Humidity
Atmospheric
Pressure
Avg
Speed
Avg
Dir
Spot
Speed
Spot
Dir
Max
Speed
Max
Dir
  Rate Situation Start End 1 hr 3 hr 6 hr 12 hr 24 hr   Situation
Date Time °F °F °F °F °F % in Hg mph ° mph ° mph ° Y/N in/hr text Date Time Date Time in in in in in mi text
06/24/2022 12:00 AM 83.30 63.86 21.02 102.92 69.98 9.0 Not Reported 3.80 W 4.25 W 5.59 W x x Other     x x x x x 29.84 Unknown
06/24/2022 12:01 AM 82.94 63.68 20.84 102.92 69.98 9.0 Not Reported 4.25 W 3.36 W 5.59 W x x Other     x x x x x 29.84 Unknown
06/24/2022 12:02 AM 82.76 63.68 20.66 102.92 69.98 9.0 Not Reported 4.47 W 5.14 W 6.04 W x x Other     x x x x x 29.84 Unknown
06/24/2022 12:03 AM 82.76 63.68 20.66 102.92 69.98 9.0 Not Reported 4.92 W 4.92 W 6.04 W x x Other     x x x x x 29.84 Unknown
06/24/2022 12:04 AM 82.58 63.68 20.66 102.92 69.98 9.0 Not Reported 4.70 W 5.14 SW 6.04 W x x Other     x x x x x 29.84 Unknown
06/24/2022 12:05 AM 82.58 63.68 20.66 102.92 69.98 9.0 Not Reported 4.70 W 4.47 W 6.04 W x x Other     x x x x x 29.84 Unknown
06/24/2022 12:06 AM 82.58 63.68 20.66 102.92 69.98 9.0 Not Reported 4.70 W 4.70 W 6.04 W x x Other     x x x x x 29.84 Unknown
06/24/2022 12:07 AM 82.58 63.68 20.66 102.92 69.98 9.0 Not Reported 4.70 W 4.03 W 6.04 W x x Other     x x x x x 29.84 Unknown
06/24/2022 12:08 AM 82.58 63.68 20.66 102.92 69.98 9.0 Not Reported 4.70 W 4.70 W 6.04 W x x Other     x x x x x 29.84 Unknown
06/24/2022 12:09 AM 82.58 63.68 20.66 102.92 69.98 9.0 Not Reported 4.25 W 4.03 W 6.04 W x x Other     x x x x x 29.84 Unknown
06/24/2022 12:10 AM 82.58 63.68 20.66 102.92 69.98 9.0 Not Reported 3.80 W 2.24 W 6.04 W x x Other     x x x x x 29.84 Unknown
06/24/2022 12:11 AM 82.76 63.68 20.66 102.92 69.98 9.0 Not Reported 3.58 W 4.03 W 5.59 W x x Other     x x x x x 29.84 Unknown
06/24/2022 12:12 AM 82.58 63.68 20.66 102.92 69.98 9.0 Not Reported 3.80 W 3.13 W 5.59 W x x Other     x x x x x 29.84 Unknown
06/24/2022 12:13 AM 82.76 63.68 20.66 102.92 69.98 9.0 Not Reported 3.58 W 2.24 SW 5.59 W x x Other     x x x x x 29.84 Unknown
06/24/2022 12:14 AM 82.94 63.68 20.84 102.92 69.98 9.0 Not Reported 3.36 W 3.13 W 5.59 W x x Other     x x x x x 29.84 Unknown
06/24/2022 12:15 AM 82.76 63.68 20.84 102.92 69.98 9.0 Not Reported 3.58 W 4.92 W 5.59 W x x Other     x x x x x 29.84 Unknown
06/24/2022 12:16 AM 82.94 63.68 20.84 102.92 69.98 9.0 Not Reported 4.25 W 4.47 W 5.59 W x x Other     x x x x x 29.84 Unknown
06/24/2022 12:17 AM 82.76 63.68 20.66 102.92 69.98 9.0 Not Reported 4.25 W 4.25 W 5.59 W x x Other     x x x x x 29.84 Unknown
06/24/2022 12:18 AM 82.94 63.68 20.84 102.92 69.98 9.0 Not Reported 4.03 W 3.80 W 5.59 W x x Other     x x x x x 29.84 Unknown
06/24/2022 12:19 AM 82.94 63.68 20.84 102.92 69.98 9.0 Not Reported 3.80 W 3.36 NW 5.59 W x x Other     x x x x x 29.84 Unknown
06/24/2022 12:20 AM 82.94 63.68 20.84 102.92 69.98 9.0 Not Reported 3.58 W 3.58 W 5.59 W x x Other     x x x x x 29.84 Unknown
06/24/2022 12:21 AM 82.94 63.68 20.84 102.92 69.98 9.0 Not Reported 3.80 W 4.92 S 5.59 W x x Other     x x x x x 29.84 Unknown
06/24/2022 12:22 AM 83.12 63.86 21.02 102.92 69.98 9.0 Not Reported 3.80 W 2.46 W 5.59 W x x Other     x x x x x 29.84 Unknown
06/24/2022 12:23 AM 83.12 63.86 21.02 102.92 69.98 9.0 Not Reported 3.58 W 2.46 W 5.59 W x x Other     x x x x x 29.84 Unknown
06/24/2022 12:24 AM 83.30 63.86 21.02 102.92 69.98 9.0 Not Reported 3.58 W 4.47 W 5.59 W x x Other     x x x x x 29.84 Unknown
06/24/2022 12:25 AM 83.30 63.86 21.02 102.92 69.98 9.0 Not Reported 4.03 W 4.47 W 5.14 W x x Other     x x x x x 29.84 Unknown
06/24/2022 12:26 AM 83.30 63.86 21.02 102.92 69.98 9.0 Not Reported 4.25 W 3.58 SW 5.14 W x x Other     x x x x x 29.84 Unknown
06/24/2022 12:27 AM 83.30 63.86 21.02 102.92 69.98 9.0 Not Reported 3.80 W 4.03 W 5.14 W x x Other     x x x x x 29.84 Unknown
06/24/2022 12:28 AM 83.12 63.86 21.02 102.92 69.98 9.0 Not Reported 3.80 W 4.70 W 5.14 W x x Other     x x x x x 29.84 Unknown
06/24/2022 12:29 AM 83.12 63.86 21.02 102.92 69.98 9.0 Not Reported 3.58 W 2.91 SW 5.14 W x x Other     x x x x x 29.84 Unknown
06/24/2022 12:30 AM 83.12 63.86 21.02 102.92 69.98 9.0 Not Reported 3.58 W 2.91 W 5.14 W x x Other     x x x x x 29.84 Unknown
06/24/2022 12:31 AM 82.94 63.68 20.84 102.92 69.98 9.0 Not Reported 3.58 W 3.13 W 5.14 W x x Other     x x x x x 29.84 Unknown
06/24/2022 12:32 AM 82.94 63.68 20.84 102.92 69.98 9.0 Not Reported 3.58 W 3.36 W 5.14 W x x Other     x x x x x 29.84 Unknown
06/24/2022 12:33 AM 82.94 63.68 20.84 102.92 69.98 9.0 Not Reported 4.03 W 4.25 W 5.14 W x x Other     x x x x x 29.84 Unknown
06/24/2022 12:34 AM 82.76 63.68 20.66 102.92 69.98 9.0 Not Reported 4.47 W 4.92 W 5.14 W x x Other     x x x x x 29.84 Unknown
06/24/2022 12:35 AM 82.76 63.68 20.66 102.92 69.98 9.0 Not Reported 4.70 W 5.59 W 6.04 W x x Other     x x x x x 29.84 Unknown
06/24/2022 12:36 AM 82.76 63.68 20.66 102.92 69.98 9.0 Not Reported 5.14 W 4.47 W 6.04 W x x Other     x x x x x 29.84 Unknown
06/24/2022 12:37 AM 82.58 63.50 20.48 102.92 69.98 9.0 Not Reported 4.92 W 4.70 W 6.04 W x x Other     x x x x x 29.84 Unknown
06/24/2022 12:38 AM 82.58 63.50 20.48 102.92 69.98 9.0 Not Reported 4.25 W 3.58 W 6.04 W x x Other     x x x x x 29.84 Unknown
06/24/2022 12:39 AM 82.40 63.50 20.48 102.92 69.98 9.0 Not Reported 4.70 W 5.59 W 6.04 W x x Other     x x x x x 29.84 Unknown
06/24/2022 12:40 AM 82.22 63.32 20.30 102.92 69.98 9.0 Not Reported 5.37 W 5.59 W 6.04 W x x Other     x x x x x 29.84 Unknown
06/24/2022 12:41 AM 82.04 63.32 20.12 102.92 69.98 9.0 Not Reported 5.82 W 5.37 W 6.49 W x x Other     x x x x x 29.84 Unknown
06/24/2022 12:42 AM 81.86 63.14 20.12 102.92 69.98 9.0 Not Reported 5.59 W 4.47 SW 6.49 W x x Other     x x x x x 29.84 Unknown
06/24/2022 12:43 AM 81.86 63.14 20.12 102.92 69.98 9.0 Not Reported 5.59 W 6.04 W 6.49 W x x Other     x x x x x 29.84 Unknown
06/24/2022 12:44 AM 81.68 63.14 19.94 102.92 69.98 9.0 Not Reported 5.82 W 5.59 W 7.16 W x x Other     x x x x x 29.84 Unknown
06/24/2022 12:45 AM 81.68 63.14 19.94 102.92 69.98 9.0 Not Reported 5.82 W 5.82 W 7.16 W x x Other     x x x x x 29.84 Unknown
06/24/2022 12:46 AM 81.68 63.14 19.94 102.92 69.98 9.0 Not Reported 5.59 W 6.49 W 7.16 W x x Other     x x x x x 29.84 Unknown
06/24/2022 12:47 AM 81.68 63.14 19.94 102.92 69.98 9.0 Not Reported 5.59 W 5.37 W 7.16 W x x Other     x x x x x 29.84 Unknown
06/24/2022 12:48 AM 81.68 63.14 19.94 102.92 69.98 9.0 Not Reported 5.37 W 5.82 W 7.16 W x x Other     x x x x x 29.84 Unknown
06/24/2022 12:49 AM 81.68 63.14 19.94 102.92 69.98 9.0 Not Reported 5.14 W 4.92 W 7.16 W x x Other     x x x x x 29.84 Unknown
06/24/2022 12:50 AM 81.68 63.14 19.94 102.92 69.98 9.0 Not Reported 5.14 W 5.14 W 7.16 W x x Other     x x x x x 29.84 Unknown
06/24/2022 12:51 AM 81.86 63.14 20.12 102.92 69.98 9.0 Not Reported 5.14 W 5.14 W 7.16 W x x Other     x x x x x 29.84 Unknown
06/24/2022 12:52 AM 82.04 63.32 20.12 102.92 69.98 9.0 Not Reported 5.14 W 5.37 W 7.16 W x x Other     x x x x x 29.84 Unknown
06/24/2022 12:53 AM 82.22 63.32 20.30 102.92 69.98 9.0 Not Reported 5.14 W 5.37 W 6.93 W x x Other     x x x x x 29.84 Unknown
06/24/2022 12:54 AM 82.40 63.50 20.48 102.92 69.98 9.0 Not Reported 5.37 W 5.37 W 6.93 W x x Other     x x x x x 29.84 Unknown
06/24/2022 12:55 AM 82.58 63.68 20.66 102.92 69.98 9.0 Not Reported 5.37 W 5.14 NW 6.93 W x x Other     x x x x x 29.84 Unknown
06/24/2022 12:56 AM 82.94 63.68 20.84 102.92 69.98 9.0 Not Reported 5.14 W 5.59 W 6.71 W x x Other     x x x x x 29.84 Unknown
06/24/2022 12:57 AM 83.12 63.86 21.02 102.92 69.98 9.0 Not Reported 4.92 W 4.47 NW 6.71 W x x Other     x x x x x 29.84 Unknown
06/24/2022 12:58 AM 83.12 63.86 21.02 102.92 69.98 9.0 Not Reported 4.70 W 6.04 NW 6.71 W x x Other     x x x x x 29.84 Unknown
06/24/2022 12:59 AM 83.30 63.86 21.02 102.92 69.98 9.0 Not Reported 4.47 W 5.14 W 6.71 W x x Other     x x x x x 29.84 Unknown
06/24/2022 01:00 AM 83.30 63.86 21.02 102.92 69.98 9.0 Not Reported 4.70 W 4.25 W 6.71 W x x Other     x x x x x 29.84 Unknown
06/24/2022 01:01 AM 83.30 63.86 21.02 102.92 69.98 9.0 Not Reported 4.92 W 4.92 W 6.71 W x x Other     x x x x x 29.84 Unknown
06/24/2022 01:02 AM 83.30 63.86 21.02 102.92 69.98 9.0 Not Reported 4.92 W 4.03 NW 7.61 W x x Other     x x x x x 29.84 Unknown
06/24/2022 01:03 AM 83.30 63.86 21.02 102.92 69.98 9.0 Not Reported 5.37 W 5.14 W 7.61 W x x Other     x x x x x 29.84 Unknown
06/24/2022 01:04 AM 83.30 63.86 21.02 102.92 69.98 9.0 Not Reported 5.59 W 6.71 W 8.05 W x x Other     x x x x x 29.84 Unknown
06/24/2022 01:05 AM 83.12 63.86 21.02 102.92 69.98 9.0 Not Reported 5.82 W 5.14 W 8.05 W x x Other     x x x x x 29.84 Unknown
06/24/2022 01:06 AM 82.94 63.68 20.84 102.92 69.98 9.0 Not Reported 5.59 W 6.04 W 8.05 W x x Other     x x x x x 29.84 Unknown
06/24/2022 01:07 AM 82.76 63.68 20.66 102.92 69.98 9.0 Not Reported 6.04 W 6.49 W 8.05 W x x Other     x x x x x 29.84 Unknown
06/24/2022 01:08 AM 82.58 63.68 20.66 102.92 69.98 9.0 Not Reported 6.26 W 6.04 W 8.05 W x x Other     x x x x x 29.84 Unknown
06/24/2022 01:09 AM 82.58 63.50 20.48 102.92 69.98 9.0 Not Reported 6.26 W 8.28 W 8.28 W x x Other     x x x x x 29.84 Unknown
06/24/2022 01:10 AM 82.58 63.50 20.48 102.92 69.98 9.0 Not Reported 6.26 W 4.70 W 8.28 W x x Other     x x x x x 29.84 Unknown
06/24/2022 01:11 AM 82.58 63.50 20.48 102.92 69.98 9.0 Not Reported 6.26 W 6.04 W 8.28 W x x Other     x x x x x 29.84 Unknown
06/24/2022 01:12 AM 82.58 63.50 20.48 102.92 69.98 9.0 Not Reported 5.82 W 7.16 W 8.28 W x x Other     x x x x x 29.84 Unknown
06/24/2022 01:13 AM 82.40 63.50 20.48 102.92 69.98 9.0 Not Reported 5.59 W 5.14 W 8.28 W x x Other     x x x x x 29.84 Unknown
06/24/2022 01:14 AM 82.40 63.50 20.48 102.92 69.98 9.0 Not Reported 5.37 W 5.82 W 8.28 W x x Other     x x x x x 29.84 Unknown
06/24/2022 01:15 AM 82.40 63.50 20.48 102.92 69.98 9.0 Not Reported 5.37 W 5.59 W 8.28 W x x Other     x x x x x 29.84 Unknown
06/24/2022 01:16 AM 82.40 63.50 20.48 102.92 69.98 9.0 Not Reported 5.59 W 6.04 W 8.28 W x x Other     x x x x x 29.84 Unknown
06/24/2022 01:17 AM 82.58 63.50 20.48 102.92 69.98 9.0 Not Reported 6.26 W 5.82 W 8.28 W x x Other     x x x x x 29.84 Unknown
06/24/2022 01:18 AM 82.58 63.50 20.48 102.92 69.98 9.0 Not Reported 5.82 W 5.59 NW 8.28 W x x Other     x x x x x 29.84 Unknown
06/24/2022 01:19 AM 82.58 63.68 20.66 102.92 69.98 9.0 Not Reported 4.92 W 6.49 W 7.83 W x x Other     x x x x x 29.84 Unknown
06/24/2022 01:20 AM 82.76 63.68 20.66 102.92 69.98 9.0 Not Reported 4.92 W 4.25 NW 8.50 W x x Other     x x x x x 29.84 Unknown
06/24/2022 01:21 AM 82.76 63.68 20.66 102.92 69.98 9.0 Not Reported 4.92 W 6.26 W 8.50 W x x Other     x x x x x 29.84 Unknown
06/24/2022 01:22 AM 82.76 63.68 20.66 102.92 69.98 9.0 Not Reported 4.92 W 7.83 x 8.50 W x x Other     x x x x x 29.84 Unknown
06/24/2022 01:23 AM 82.76 63.68 20.66 102.92 69.98 9.0 Not Reported 6.26 W 7.61 W 8.95 NW x x Other     x x x x x 29.84 Unknown
06/24/2022 01:24 AM 82.76 63.68 20.66 102.92 69.98 9.0 Not Reported 6.93 W 8.72 W 8.95 NW x x Other     x x x x x 29.84 Unknown
06/24/2022 01:25 AM 82.94 63.68 20.84 102.92 69.98 9.0 Not Reported 8.05 W 9.62 W 10.74 NW x x Other     x x x x x 29.84 Unknown
06/24/2022 01:26 AM 83.30 63.86 21.02 102.92 69.98 9.0 Not Reported 9.17 W 7.16 NW 11.18 W x x Other     x x x x x 29.84 Unknown
06/24/2022 01:27 AM 83.66 64.04 21.38 102.92 69.98 9.0 Not Reported 8.72 W 7.16 W 11.18 W x x Other     x x x x x 29.84 Unknown
06/24/2022 01:28 AM 83.66 64.22 21.38 102.92 69.98 9.0 Not Reported 7.83 W 6.93 NW 11.18 W x x Other     x x x x x 29.84 Unknown
06/24/2022 01:29 AM 83.66 64.22 21.38 102.92 69.98 9.0 Not Reported 6.49 W 5.14 W 11.18 W x x Other     x x x x x 29.84 Unknown
06/24/2022 01:30 AM 83.66 64.22 21.38 102.92 69.98 9.0 Not Reported 5.82 W 4.92 W 11.18 W x x Other     x x x x x 29.84 Unknown
06/24/2022 01:31 AM 83.66 64.22 21.38 102.92 69.98 9.0 Not Reported 4.92 W 4.92 W 11.18 W x x Other     x x x x x 29.84 Unknown
06/24/2022 01:32 AM 83.66 64.04 21.38 102.92 69.98 9.0 Not Reported 4.47 W 7.16 W 11.18 W x x Other     x x x x x 29.84 Unknown
06/24/2022 01:33 AM 83.48 64.04 21.20 102.92 69.98 9.0 Not Reported 5.59 W 4.47 W 11.18 W x x Other     x x x x x 29.84 Unknown
06/24/2022 01:34 AM 83.48 64.04 21.20 102.92 69.98 9.0 Not Reported 5.82 W 6.26 W 11.18 W x x Other     x x x x x 29.84 Unknown
06/24/2022 01:35 AM 83.48 64.04 21.20 102.92 69.98 9.0 Not Reported 5.37 W 3.80 SW 10.29 NW x x Other     x x x x x 29.84 Unknown
06/24/2022 01:36 AM 83.48 64.04 21.20 102.92 69.98 9.0 Not Reported 4.92 W 3.80 NW 9.40 W x x Other     x x x x x 29.84 Unknown
06/24/2022 01:37 AM 83.48 64.04 21.20 102.92 69.98 9.0 Not Reported 4.03 W 5.82 NW 9.40 W x x Other     x x x x x 29.84 Unknown
06/24/2022 01:38 AM 83.48 64.04 21.20 102.92 69.98 9.0 Not Reported 4.70 W 4.92 NW 9.40 W x x Other     x x x x x 29.84 Unknown
06/24/2022 01:39 AM 83.48 64.04 21.20 102.92 69.98 9.0 Not Reported 5.14 W 5.14 W 9.40 W x x Other     x x x x x 29.84 Unknown
06/24/2022 01:40 AM 83.30 63.86 21.02 102.92 69.98 9.0 Not Reported 4.70 W 3.58 NW 9.40 W x x Other     x x x x x 29.84 Unknown
06/24/2022 01:41 AM 83.12 63.86 21.02 102.92 69.98 9.0 Not Reported 3.80 W 1.79 SW 9.40 W x x Other     x x x x x 29.84 Unknown
06/24/2022 01:42 AM 82.94 63.68 20.84 102.92 69.98 9.0 Not Reported 2.68 W 1.79 NW 8.05 NW x x Other     x x x x x 29.84 Unknown
06/24/2022 01:43 AM 82.76 63.68 20.66 102.92 69.98 9.0 Not Reported 2.68 W 2.91 NW 8.05 NW x x Other     x x x x x 29.84 Unknown
06/24/2022 01:44 AM 82.58 63.68 20.66 102.92 69.98 9.0 Not Reported 2.68 NW 3.58 W 6.49 NW x x Other     x x x x x 29.84 Unknown
06/24/2022 01:45 AM 82.58 63.68 20.66 102.92 69.98 9.0 Not Reported 2.91 W 3.36 W 6.49 NW x x Other     x x x x x 29.84 Unknown
06/24/2022 01:46 AM 82.58 63.68 20.66 102.92 69.98 9.0 Not Reported 3.13 SW 5.37 SW 6.49 NW x x Other     x x x x x 29.84 Unknown
06/24/2022 01:47 AM 82.40 63.50 20.48 102.92 69.98 9.0 Not Reported 4.25 SW 6.04 SW 6.49 NW x x Other     x x x x x 29.84 Unknown
06/24/2022 01:48 AM 81.86 63.14 20.12 102.92 69.98 9.0 Not Reported 5.82 SW 6.71 SW 6.93 SW x x Other     x x x x x 29.84 Unknown
06/24/2022 01:49 AM 81.50 62.96 19.76 102.92 69.98 9.0 Not Reported 6.49 SW 6.93 SW 7.83 SW x x Other     x x x x x 29.84 Unknown
06/24/2022 01:50 AM 81.14 62.78 19.40 102.92 69.98 9.0 Not Reported 6.71 SW 6.49 SW 7.83 SW x x Other     x x x x x 29.84 Unknown
06/24/2022 01:51 AM 80.78 62.60 19.22 102.92 69.98 9.0 Not Reported 6.04 SW 3.80 SW 7.83 SW x x Other     x x x x x 29.84 Unknown
06/24/2022 01:52 AM 80.60 62.42 19.04 102.92 69.98 9.0 Not Reported 5.82 SW 6.49 SW 7.83 SW x x Other     x x x x x 29.84 Unknown
06/24/2022 01:53 AM 80.42 62.24 18.86 102.92 69.98 9.0 Not Reported 6.04 SW 5.14 S 7.83 SW x x Other     x x x x x 29.84 Unknown
06/24/2022 01:54 AM 80.24 62.24 18.68 102.92 69.98 9.0 Not Reported 6.49 SW 6.71 SW 7.83 SW x x Other     x x x x x 29.84 Unknown
06/24/2022 01:55 AM 79.88 62.06 18.50 102.92 69.98 9.0 Not Reported 6.26 SW 6.04 W 7.83 SW x x Other     x x x x x 29.84 Unknown
06/24/2022 01:56 AM 79.88 62.06 18.50 102.92 69.98 9.0 Not Reported 6.49 SW 5.37 SW 8.28 SW x x Other     x x x x x 29.84 Unknown
06/24/2022 01:57 AM 79.88 62.06 18.50 102.92 69.98 9.0 Not Reported 6.04 SW 5.59 SW 8.28 SW x x Other     x x x x x 29.84 Unknown
06/24/2022 01:58 AM 79.70 62.06 18.50 102.92 69.98 9.0 Not Reported 5.37 SW 4.03 SW 8.28 SW x x Other     x x x x x 29.84 Unknown
06/24/2022 01:59 AM 79.70 62.06 18.50 102.92 69.98 9.0 Not Reported 4.70 SW 3.13 SW 8.28 SW x x Other     x x x x x 29.84 Unknown
06/24/2022 02:00 AM 79.88 62.06 18.50 102.92 69.98 9.0 Not Reported 4.03 SW 3.80 SW 8.28 SW x x Other     x x x x x 29.84 Unknown
06/24/2022 02:01 AM 80.24 62.24 18.68 102.92 69.98 9.0 Not Reported 3.36 SW 3.36 W 8.28 SW x x Other     x x x x x 29.84 Unknown
06/24/2022 02:02 AM 80.60 62.42 19.04 102.92 69.98 9.0 Not Reported 3.13 W 5.37 W 8.28 SW x x Other     x x x x x 29.84 Unknown
06/24/2022 02:03 AM 80.60 62.42 19.04 102.92 69.98 9.0 Not Reported 4.03 W 4.25 W 8.28 SW x x Other     x x x x x 29.84 Unknown
06/24/2022 02:04 AM 80.78 62.42 19.22 102.92 69.98 9.0 Not Reported 4.25 W 3.36 SW 8.28 SW x x Other     x x x x x 29.84 Unknown
06/24/2022 02:05 AM 80.60 62.42 19.04 102.92 69.98 9.0 Not Reported 3.36 SW 4.03 SW 6.49 SW x x Other     x x x x x 29.84 Unknown
06/24/2022 02:06 AM 80.60 62.42 19.04 102.92 69.98 9.0 Not Reported 3.36 SW 4.70 SW 6.49 SW x x Other     x x x x x 29.84 Unknown
06/24/2022 02:07 AM 80.60 62.42 19.04 102.92 69.98 9.0 Not Reported 4.47 SW 4.70 SW 6.49 SW x x Other     x x x x x 29.84 Unknown
06/24/2022 02:08 AM 80.60 62.42 19.04 102.92 69.98 9.0 Not Reported 4.70 SW 4.70 SW 6.04 SW x x Other     x x x x x 29.84 Unknown
06/24/2022 02:09 AM 80.60 62.42 19.04 102.92 69.98 9.0 Not Reported 4.92 SW 6.26 SW 6.49 SW x x Other     x x x x x 29.84 Unknown
06/24/2022 02:10 AM 80.42 62.24 18.86 102.92 69.98 9.0 Not Reported 5.59 SW 5.59 SW 7.16 S x x Other     x x x x x 29.84 Unknown
06/24/2022 02:11 AM 80.24 62.24 18.68 102.92 69.98 9.0 Not Reported 5.59 SW 6.49 SW 7.16 S x x Other     x x x x x 29.84 Unknown
06/24/2022 02:12 AM 79.88 62.06 18.50 102.92 69.98 9.0 Not Reported 5.82 SW 4.92 SW 7.16 S x x Other     x x x x x 29.84 Unknown
06/24/2022 02:13 AM 79.70 62.06 18.50 102.92 69.98 9.0 Not Reported 5.59 SW 4.03 SW 7.16 S x x Other     x x x x x 29.84 Unknown
06/24/2022 02:14 AM 79.70 62.06 18.50 102.92 69.98 9.0 Not Reported 5.14 SW 6.04 SW 7.16 S x x Other     x x x x x 29.84 Unknown
06/24/2022 02:15 AM 79.70 61.88 18.32 102.92 69.98 9.0 Not Reported 5.14 SW 5.14 SW 7.16 S x x Other     x x x x x 29.84 Unknown
06/24/2022 02:16 AM 79.52 61.88 18.14 102.92 69.98 9.0 Not Reported 4.92 SW 5.59 SW 7.16 S x x Other     x x x x x 29.84 Unknown
06/24/2022 02:17 AM 79.34 61.70 18.14 102.92 69.98 9.0 Not Reported 4.70 SW 4.47 SW 7.16 S x x Other     x x x x x 29.84 Unknown
06/24/2022 02:18 AM 79.16 61.70 17.96 102.92 69.98 9.0 Not Reported 4.70 SW 4.70 SW 7.16 S x x Other     x x x x x 29.84 Unknown
06/24/2022 02:19 AM 78.98 61.52 17.78 102.92 69.98 9.0 Not Reported 4.92 SW 4.70 SW 6.71 SW x x Other     x x x x x 29.84 Unknown
06/24/2022 02:20 AM 78.80 61.52 17.78 102.92 69.98 9.0 Not Reported 4.25 SW 4.25 SW 6.71 SW x x Other     x x x x x 29.84 Unknown
06/24/2022 02:21 AM 78.62 61.34 17.60 102.92 69.98 9.0 Not Reported 3.80 SW 4.03 S 6.04 SW x x Other     x x x x x 29.84 Unknown
06/24/2022 02:22 AM 78.62 61.34 17.42 102.92 69.98 9.0 Not Reported 4.03 SW 4.25 S 6.04 SW x x Other     x x x x x 29.84 Unknown
06/24/2022 02:23 AM 78.44 61.16 17.42 102.92 69.98 9.0 Not Reported 4.25 SW 4.92 SW 6.04 SW x x Other     x x x x x 29.84 Unknown
06/24/2022 02:24 AM 78.26 61.16 17.24 102.92 69.98 9.0 Not Reported 4.47 SW 6.04 SW 6.26 SW x x Other     x x x x x 29.84 Unknown
06/24/2022 02:25 AM 78.08 60.98 17.06 102.92 69.98 9.0 Not Reported 4.25 SW 1.79 SW 6.26 SW x x Other     x x x x x 29.84 Unknown
06/24/2022 02:26 AM 77.90 60.98 17.06 102.92 69.98 9.0 Not Reported 3.58 SW 5.14 W 6.26 SW x x Other     x x x x x 29.84 Unknown
06/24/2022 02:27 AM 77.90 60.98 17.06 102.92 69.98 9.0 Not Reported 4.25 SW 4.03 S 6.49 SW x x Other     x x x x x 29.84 Unknown
06/24/2022 02:28 AM x 60.98 17.06 102.92 69.98 9.0 Not Reported 4.92 SW 2.91 SW 6.93 SW x x Other     x x x x x 29.84 Unknown
06/24/2022 02:29 AM 77.90 60.98 17.06 102.92 69.98 9.0 Not Reported 4.47 SW 6.04 SW 6.93 SW x x Other     x x x x x 29.84 Unknown
06/24/2022 02:30 AM 78.08 60.98 17.06 102.92 69.98 9.0 Not Reported 4.92 SW 3.36 SW 6.93 SW x x Other     x x x x x 29.84 Unknown
06/24/2022 02:31 AM 78.26 61.16 17.24 102.92 69.98 9.0 Not Reported 5.37 SW 4.70 SW 6.93 SW x x Other     x x x x x 29.84 Unknown
06/24/2022 02:32 AM 78.44 61.16 17.42 102.92 69.98 9.0 Not Reported 4.25 SW 3.36 SW 6.93 SW x x Other     x x x x x 29.84 Unknown
06/24/2022 02:33 AM 78.62 61.34 17.42 102.92 69.98 9.0 Not Reported 3.80 SW 2.24 W 6.93 SW x x Other     x x x x x 29.84 Unknown
06/24/2022 02:34 AM 78.62 61.34 17.60 102.92 69.98 9.0 Not Reported 3.58 SW 5.14 SW 6.93 SW x x Other     x x x x x 29.84 Unknown
06/24/2022 02:35 AM 78.62 61.34 17.60 102.92 69.98 9.0 Not Reported 4.25 SW 5.37 SW 6.93 SW x x Other     x x x x x 29.84 Unknown
06/24/2022 02:36 AM 78.62 61.34 17.60 102.92 69.98 9.0 Not Reported 4.92 SW 4.25 S 6.93 SW x x Other     x x x x x 29.84 Unknown
06/24/2022 02:37 AM 78.62 61.34 17.60 102.92 69.98 9.0 Not Reported 4.70 SW 4.70 SW 6.49 SW x x Other     x x x x x 29.84 Unknown
06/24/2022 02:38 AM 78.62 61.34 17.60 102.92 69.98 9.0 Not Reported 4.70 SW 4.92 SW 6.49 SW x x Other     x x x x x 29.84 Unknown
06/24/2022 02:39 AM 78.62 61.34 17.42 102.92 69.98 9.0 Not Reported 5.59 SW 7.16 SW 7.16 SW x x Other     x x x x x 29.84 Unknown
06/24/2022 02:40 AM 78.62 61.34 17.42 102.92 69.98 9.0 Not Reported 6.04 SW 4.92 SW 7.16 SW x x Other     x x x x x 29.84 Unknown
06/24/2022 02:41 AM 78.44 61.16 17.42 102.92 69.98 9.0 Not Reported 5.82 SW 6.04 SW 7.16 SW x x Other     x x x x x 29.84 Unknown
06/24/2022 02:42 AM 78.26 61.16 17.24 102.92 69.98 9.0 Not Reported 5.82 SW 4.25 SW 7.16 SW x x Other     x x x x x 29.84 Unknown
06/24/2022 02:43 AM 78.08 60.98 17.06 102.92 69.98 9.0 Not Reported 5.59 SW 4.70 SW 7.16 SW x x Other     x x x x x 29.84 Unknown
06/24/2022 02:44 AM 78.08 60.98 17.06 102.92 69.98 9.0 Not Reported 4.70 SW 3.13 W 7.16 SW x x Other     x x x x x 29.84 Unknown
06/24/2022 02:45 AM 78.26 61.16 17.24 102.92 69.98 9.0 Not Reported 4.03 SW 3.80 SW 7.16 SW x x Other     x x x x x 29.84 Unknown
06/24/2022 02:46 AM 78.44 61.16 17.42 102.92 69.98 9.0 Not Reported 3.58 SW 1.79 W 7.16 SW x x Other     x x x x x 29.84 Unknown
06/24/2022 02:47 AM 78.44 61.16 17.42 102.92 69.98 9.0 Not Reported 3.13 SW 4.47 SW 7.16 SW x x Other     x x x x x 29.84 Unknown
06/24/2022 02:48 AM 78.44 61.16 17.42 102.92 69.98 9.0 Not Reported 3.80 SW 4.92 W 7.16 SW x x Other     x x x x x 29.84 Unknown
06/24/2022 02:49 AM 78.26 61.16 17.24 102.92 69.98 9.0 Not Reported 4.70 SW 5.14 SW 6.49 SW x x Other     x x x x x 29.84 Unknown
06/24/2022 02:50 AM 78.08 60.98 17.06 102.92 69.98 9.0 Not Reported 5.14 SW 4.47 SW 6.49 SW x x Other     x x x x x 29.84 Unknown
06/24/2022 02:51 AM 77.90 60.98 17.06 102.92 69.98 9.0 Not Reported 4.92 SW 4.70 SW 6.04 SW x x Other     x x x x x 29.84 Unknown
06/24/2022 02:52 AM 77.90 60.98 17.06 102.92 69.98 9.0 Not Reported 4.70 SW 5.14 SW 6.04 SW x x Other     x x x x x 29.84 Unknown
06/24/2022 02:53 AM 77.90 60.98 17.06 102.92 69.98 9.0 Not Reported 4.92 SW 4.92 SW 6.04 SW x x Other     x x x x x 29.84 Unknown
06/24/2022 02:54 AM 78.08 60.98 17.06 102.92 69.98 9.0 Not Reported 4.70 SW 5.37 SW 6.04 SW x x Other     x x x x x 29.84 Unknown
06/24/2022 02:55 AM 78.08 60.98 17.06 102.92 69.98 9.0 Not Reported 4.47 SW 5.37 SW 6.04 SW x x Other     x x x x x 29.84 Unknown
06/24/2022 02:56 AM 78.26 61.16 17.24 102.92 69.98 9.0 Not Reported 4.70 SW 4.47 W 6.04 SW x x Other     x x x x x 29.84 Unknown
06/24/2022 02:57 AM 78.44 61.16 17.42 102.92 69.98 9.0 Not Reported 3.80 SW 2.46 SW 6.04 SW x x Other     x x x x x 29.84 Unknown
06/24/2022 02:58 AM 78.44 61.16 17.42 102.92 69.98 x Not Reported 3.58 SW 3.58 SW 6.04 SW x x Other     x x x x x 29.84 Unknown
06/24/2022 02:59 AM 78.62 61.34 17.42 102.92 69.98 9.0 Not Reported 4.03 SW 3.80 SW 5.82 SW x x Other     x x x x x 29.84 Unknown
06/24/2022 03:00 AM 78.62 61.34 17.60 102.92 69.98 9.0 Not Reported 4.03 SW 4.70 SW 5.82 SW x x Other     x x x x x 29.84 Unknown
06/24/2022 03:01 AM 78.62 61.34 17.60 102.92 69.98 9.0 Not Reported 4.47 SW 6.71 SW 5.82 SW x x Other     x x x x x 29.84 Unknown
06/24/2022 03:02 AM 78.62 61.34 17.60 102.92 69.98 9.0 Not Reported 5.14 SW 4.70 SW 6.71 SW x x Other     x x x x x 29.84 Unknown
06/24/2022 03:03 AM 78.62 61.34 17.42 102.92 69.98 9.0 Not Reported 4.47 SW 4.47 SW 6.71 SW x x Other     x x x x x 29.84 Unknown
06/24/2022 03:04 AM 78.44 61.16 17.42 102.92 69.98 9.0 Not Reported 4.03 SW 4.47 SW 6.71 SW x x Other     x x x x x 29.84 Unknown
06/24/2022 03:05 AM 78.26 61.16 17.24 102.92 69.98 9.0 Not Reported 3.80 SW 2.46 SW 6.71 SW x x Other     x x x x x 29.84 Unknown
06/24/2022 03:06 AM 78.08 60.98 17.06 102.92 69.98 9.0 Not Reported 3.36 SW 2.01 SW 6.71 SW x x Other     x x x x x 29.84 Unknown
06/24/2022 03:07 AM 78.08 60.98 17.06 102.92 69.98 9.0 Not Reported 2.91 SW 1.12 SW 6.71 SW x x Other     x x x x x 29.84 Unknown
06/24/2022 03:08 AM 78.26 61.16 17.24 102.92 69.98 9.0 Not Reported 2.68 SW 1.57 S 6.71 SW x x Other     x x x x x 29.84 Unknown
06/24/2022 03:09 AM 78.44 61.16 17.42 102.92 69.98 9.0 Not Reported 2.68 SW 3.36 SW 6.71 SW x x Other     x x x x x 29.84 Unknown
06/24/2022 03:10 AM 78.44 61.16 17.42 102.92 69.98 9.0 Not Reported x SW 4.03 SW 6.71 SW x x Other     x x x x x 29.84 Unknown
06/24/2022 03:11 AM 78.62 61.34 17.42 102.92 69.98 9.0 Not Reported 4.03 SW 4.47 SW 5.37 SW x x Other     x x x x x 29.84 Unknown
06/24/2022 03:12 AM 78.62 61.34 17.42 102.92 69.98 9.0 Not Reported 4.03 SW 2.91 S 5.37 SW x x Other     x x x x x 29.84 Unknown
06/24/2022 03:13 AM 78.80 61.52 17.78 102.92 69.98 9.0 Not Reported 3.58 SW 3.58 SW 5.37 SW x x Other     x x x x x 29.84 Unknown
06/24/2022 03:14 AM 78.98 61.52 17.78 102.92 69.98 9.0 Not Reported 3.13 SW 2.91 SW 5.37 SW x x Other     x x x x x 29.84 Unknown
06/24/2022 03:15 AM 78.98 61.52 17.78 102.92 69.98 9.0 Not Reported 2.91 SW 4.25 SW 5.37 SW x x Other     x x x x x 29.84 Unknown
06/24/2022 03:16 AM 79.16 61.70 x 102.92 69.98 9.0 Not Reported 3.13 SW 3.13 SW 5.37 SW x x Other     x x x x x 29.84 Unknown
06/24/2022 03:17 AM 78.98 61.52 17.78 102.92 69.98 9.0 Not Reported 3.36 SW 2.68 SW 5.37 SW x x Other     x x x x x 29.84 Unknown
06/24/2022 03:18 AM 78.98 61.52 17.78 102.92 69.98 9.0 Not Reported 3.58 SW 3.80 SW 5.37 SW x x Other     x x x x x 29.84 Unknown
06/24/2022 03:19 AM 78.80 61.52 17.78 102.92 69.98 9.0 Not Reported 3.58 SW 3.58 SW 5.37 SW x x Other     x x x x x 29.84 Unknown
06/24/2022 03:20 AM 78.80 61.52 17.78 102.92 69.98 9.0 Not Reported 3.36 SW 3.13 SW 4.47 SW x x Other     x x x x x 29.84 Unknown
06/24/2022 03:21 AM 78.98 61.52 17.78 102.92 69.98 9.0 Not Reported 3.13 SW 3.13 S 4.47 S x x Other     x x x x x 29.84 Unknown
06/24/2022 03:22 AM 78.80 61.52 17.78 102.92 69.98 9.0 Not Reported 3.13 SW 3.13 SW 4.47 S x x Other     x x x x x 29.84 Unknown
06/24/2022 03:23 AM 78.62 61.34 17.60 102.92 69.98 9.0 Not Reported 3.36 S 4.03 S 4.70 S x x Other     x x x x x 29.84 Unknown
06/24/2022 03:24 AM 78.44 61.16 17.42 102.92 69.98 9.0 Not Reported 3.80 S 5.37 SW 5.14 SW x x Other     x x x x x 29.84 Unknown
06/24/2022 03:25 AM 78.26 61.16 17.24 102.92 69.98 9.0 Not Reported 4.25 SW 4.03 S 5.37 SW x x Other     x x x x x 29.84 Unknown
06/24/2022 03:26 AM 78.08 60.98 17.06 102.92 69.98 9.0 Not Reported 4.03 SW 2.91 SW 5.37 SW x x Other     x x x x x 29.84 Unknown
06/24/2022 03:27 AM 78.08 60.98 17.06 102.92 69.98 9.0 Not Reported 2.91 SW 2.68 SE 5.37 SW x x Other     x x x x x 29.84 Unknown
06/24/2022 03:28 AM 78.08 60.98 17.06 102.92 69.98 9.0 Not Reported 2.24 SW 0.67 S 5.37 SW x x Other     x x x x x 29.84 Unknown
06/24/2022 03:29 AM 77.90 60.98 17.06 102.92 69.98 9.0 Not Reported 2.24 S 3.13 E 5.37 SW x x Other     x x x x x 29.84 Unknown
06/24/2022 03:30 AM 77.72 60.80 16.88 102.92 69.98 9.0 Not Reported 2.68 S 2.01 S 5.37 SW x x Other     x x x x x 29.84 Unknown
06/24/2022 03:31 AM 77.54 60.80 16.70 102.92 69.98 9.0 Not Reported 2.68 S 3.58 S 5.37 SW x x Other     x x x x x 29.84 Unknown
06/24/2022 03:32 AM 77.54 60.62 16.70 102.92 69.98 9.0 Not Reported 3.13 S 2.68 S 5.37 SW x x Other     x x x x x 29.84 Unknown
06/24/2022 03:33 AM 77.18 60.44 16.52 102.92 69.98 9.0 Not Reported 3.58 SW 4.25 SW 5.37 SW x x Other     x x x x x 29.84 Unknown
06/24/2022 03:34 AM 77.00 60.26 16.34 102.92 69.98 9.0 Not Reported 3.80 SW 2.46 S 4.70 SW x x Other     x x x x x 29.84 Unknown
06/24/2022 03:35 AM 76.64 60.26 16.16 102.92 69.98 9.0 Not Reported 3.80 SW 3.58 SW 4.92 SW x x Other     x x x x x 29.84 Unknown
06/24/2022 03:36 AM 76.46 60.08 15.80 102.92 69.98 9.0 Not Reported 3.80 SW 4.47 SW 4.92 SW x x Other     x x x x x 29.84 Unknown
06/24/2022 03:37 AM 76.28 59.90 15.80 102.92 69.98 9.0 Not Reported 3.58 SW 3.58 SW 4.92 SW x x Other     x x x x x 29.84 Unknown
06/24/2022 03:38 AM 76.28 59.90 15.80 102.92 69.98 9.0 Not Reported 3.58 SW 2.91 SW 6.49 S x x Other     x x x x x 29.84 Unknown
06/24/2022 03:39 AM 76.28 59.90 15.80 102.92 69.98 9.0 Not Reported 3.13 SW 2.24 SW 6.49 S x x Other     x x x x x 29.84 Unknown
06/24/2022 03:40 AM 76.28 59.90 15.80 102.92 69.98 9.0 Not Reported 2.24 SW 2.01 SW 6.49 S x x Other     x x x x x 29.84 Unknown
06/24/2022 03:41 AM 76.28 59.90 15.80 102.92 69.98 9.0 Not Reported 2.01 SW 2.24 S 6.49 S x x Other     x x x x x 29.84 Unknown
06/24/2022 03:42 AM 76.28 59.90 15.80 102.92 69.98 9.0 Not Reported 2.24 SW 1.79 S 6.49 S x x Other     x x x x x 29.84 Unknown
06/24/2022 03:43 AM 76.28 59.90 15.80 102.92 69.98 9.0 Not Reported 2.24 SW 3.36 SW 6.49 S x x Other     x x x x x 29.84 Unknown
06/24/2022 03:44 AM 76.10 59.90 15.62 102.92 69.98 9.0 Not Reported 2.24 SW 1.79 W 6.49 S x x Other     x x x x x 29.84 Unknown
06/24/2022 03:45 AM 75.92 59.72 15.44 102.92 69.98 9.0 Not Reported 2.68 SW 3.58 SW 6.49 S x x Other     x x x x x 29.84 Unknown
06/24/2022 03:46 AM 75.74 59.72 15.44 102.92 69.98 9.0 Not Reported 2.46 SW 1.34 S 6.49 S x x Other     x x x x x 29.84 Unknown
06/24/2022 03:47 AM 75.74 59.72 15.44 102.92 69.98 9.0 Not Reported 2.24 S 1.57 SW 5.59 S x x Other     x x x x x 29.84 Unknown
06/24/2022 03:48 AM 75.56 59.72 15.44 102.92 69.98 9.0 Not Reported 1.79 SW 1.57 S 5.59 S x x Other     x x x x x 29.84 Unknown
06/24/2022 03:49 AM 75.74 59.72 15.44 102.92 69.98 9.0 Not Reported 1.12 S 1.34 SW 5.59 S x x Other     x x x x x 29.84 Unknown
06/24/2022 03:50 AM 75.92 59.90 15.44 102.92 69.98 9.0 Not Reported 0.89 S 1.34 SW 5.59 S x x Other     x x x x x 29.84 Unknown
06/24/2022 03:51 AM 76.10 59.90 15.62 102.92 69.98 9.0 Not Reported 1.34 S 2.01 SW 3.58 SW x x Other     x x x x x 29.84 Unknown
06/24/2022 03:52 AM 76.28 59.90 15.80 102.92 69.98 9.0 Not Reported 2.01 SW 4.70 SW 5.82 S x x Other     x x x x x 29.84 Unknown
06/24/2022 03:53 AM 76.10 59.90 15.62 102.92 69.98 9.0 Not Reported 2.91 S 3.13 S 5.82 S x x Other     x x x x x 29.84 Unknown
06/24/2022 03:54 AM 75.92 59.72 15.44 102.92 69.98 9.0 Not Reported 3.36 SW 4.25 S 5.82 S x x Other     x x x x x 29.84 Unknown
06/24/2022 03:55 AM 75.74 59.72 15.44 102.92 69.98 9.0 Not Reported 3.58 SW 3.36 SW 5.82 S x x Other     x x x x x 29.84 Unknown
06/24/2022 03:56 AM 75.56 59.54 15.26 102.92 69.98 9.0 Not Reported 3.36 SW 2.68 SW 5.82 S x x Other     x x x x x 29.84 Unknown
06/24/2022 03:57 AM 75.74 59.72 15.44 102.92 69.98 9.0 Not Reported 2.68 SW 2.46 S 5.82 S x x Other     x x x x x 29.84 Unknown
06/24/2022 03:58 AM 75.74 59.72 15.44 102.92 69.98 9.0 Not Reported 2.68 SW 2.46 SW 5.82 S x x Other     x x x x x 29.84 Unknown
06/24/2022 03:59 AM 75.74 59.72 15.44 102.92 69.98 9.0 Not Reported 2.68 SW 3.58 SW 5.82 S x x Other     x x x x x 29.84 Unknown
06/24/2022 04:00 AM 75.92 59.72 15.44 102.92 69.98 9.0 Not Reported 2.91 SW 3.80 SW 5.82 S x x Other     x x x x x 29.84 Unknown
06/24/2022 04:01 AM 75.92 59.72 15.44 102.92 69.98 9.0 Not Reported 3.36 SW 3.13 SW 4.70 S x x Other     x x x x x 29.84 Unknown
06/24/2022 04:02 AM 75.74 59.72 15.44 102.92 69.98 9.0 Not Reported 3.36 SW 2.91 SW 4.70 S x x Other     x x x x x 29.84 Unknown
06/24/2022 04:03 AM 75.74 59.72 15.26 102.92 69.98 9.0 Not Reported 2.68 SW 1.57 SW 4.70 S x x Other     x x x x x 29.84 Unknown
06/24/2022 04:04 AM 75.74 59.72 15.44 102.92 69.98 9.0 Not Reported 1.57 SW 1.12 SW 4.47 SW x x Other     x x x x x 29.84 Unknown
06/24/2022 04:05 AM 76.10 59.90 15.62 102.92 69.98 9.0 Not Reported 1.34 SW 1.12 SW 4.47 SW x x Other     x x x x x 29.84 Unknown
06/24/2022 04:06 AM 76.46 60.08 15.80 102.92 69.98 9.0 Not Reported 1.34 SW 1.79 W 4.47 SW x x Other     x x x x x 29.84 Unknown
06/24/2022 04:07 AM 76.46 60.08 15.98 102.92 69.98 9.0 Not Reported 1.57 SW 2.46 SW 4.47 SW x x Other     x x x x x 29.84 Unknown
06/24/2022 04:08 AM 76.46 60.08 15.80 102.92 69.98 9.0 Not Reported 2.24 S 2.68 SW 4.47 SW x x Other     x x x x x 29.84 Unknown
06/24/2022 04:09 AM 76.28 59.90 15.80 102.92 69.98 9.0 Not Reported 2.46 S 1.79 S 4.47 SW x x Other     x x x x x 29.84 Unknown
06/24/2022 04:10 AM 76.10 59.90 15.62 102.92 69.98 9.0 Not Reported 2.24 SW 2.01 S 4.03 S x x Other     x x x x x 29.84 Unknown
06/24/2022 04:11 AM 75.92 59.72 15.44 102.92 69.98 9.0 Not Reported 1.79 S 1.79 S 3.13 S x x Other     x x x x x 29.84 Unknown
06/24/2022 04:12 AM 75.56 59.54 15.26 102.92 69.98 9.0 Not Reported 1.79 S 2.24 S 3.13 S x x Other     x x x x x 29.84 Unknown
06/24/2022 04:13 AM 75.38 59.54 15.08 102.92 69.98 9.0 Not Reported 2.01 S 2.91 S 5.37 SE x x Other     x x x x x 29.84 Unknown
06/24/2022 04:14 AM 75.38 59.36 15.08 102.92 69.98 9.0 Not Reported 2.46 S 2.01 S 5.37 SE x x Other     x x x x x 29.84 Unknown
06/24/2022 04:15 AM 75.38 59.36 15.08 102.92 69.98 9.0 Not Reported 1.57 NW 1.57 NW 5.37 SE x x Other     x x x x x 29.84 Unknown
06/24/2022 04:16 AM 75.20 59.36 14.90 102.92 69.98 9.0 Not Reported 1.57 NW 3.58 NE 5.37 SE x x Other     x x x x x 29.84 Unknown
06/24/2022 04:17 AM 74.84 59.18 14.72 102.92 69.98 9.0 Not Reported 3.36 NE 3.13 NE 5.59 NE x x Other     x x x x x 29.84 Unknown
06/24/2022 04:18 AM 74.30 58.82 14.36 102.92 69.98 9.0 Not Reported 4.70 NE 4.03 NE 5.59 NE x x Other     x x x x x 29.84 Unknown
06/24/2022 04:19 AM 73.94 58.64 14.00 102.92 69.98 9.0 Not Reported 4.47 NE 3.80 NE 5.59 NE x x Other     x x x x x 29.84 Unknown
06/24/2022 04:20 AM 73.58 58.46 13.64 102.92 69.98 9.0 Not Reported 3.80 NE 3.58 NE 5.59 NE x x Other     x x x x x 29.84 Unknown
06/24/2022 04:21 AM 73.22 58.28 13.46 102.92 69.98 9.0 Not Reported 3.58 NE 2.91 E 5.59 NE x x Other     x x x x x 29.84 Unknown
06/24/2022 04:22 AM 73.04 57.92 13.28 102.92 69.98 9.0 Not Reported 2.91 E 2.46 E 5.59 NE x x Other     x x x x x 29.84 Unknown
06/24/2022 04:23 AM 72.68 57.92 13.10 102.92 69.98 9.0 Not Reported 2.46 E 2.24 E 5.59 NE x x Other     x x x x x 29.84 Unknown
06/24/2022 04:24 AM 72.32 57.74 12.74 102.92 69.98 9.0 Not Reported 2.24 E 1.57 E 5.59 NE x x Other     x x x x x 29.84 Unknown
06/24/2022 04:25 AM 72.14 57.38 12.56 102.92 69.98 9.0 Not Reported 2.24 SE 2.91 SE 5.59 NE x x Other     x x x x x 29.84 Unknown
06/24/2022 04:26 AM 71.78 57.20 12.38 102.92 69.98 9.0 Not Reported 2.68 SE 3.13 SE 5.59 NE x x Other     x x x x x 29.84 Unknown
06/24/2022 04:27 AM 71.60 57.20 12.20 102.92 69.98 9.0 Not Reported 2.91 SE 2.46 SE 5.59 NE x x Other     x x x x x 29.84 Unknown
06/24/2022 04:28 AM 71.42 57.02 12.02 102.92 69.98 9.0 Not Reported 2.68 SE 2.46 SE 4.03 NE x x Other     x x x x x 29.84 Unknown
06/24/2022 04:29 AM 71.24 57.02 12.02 102.92 69.98 9.0 Not Reported 2.68 SE 2.91 SE 3.80 NE x x Other     x x x x x 29.84 Unknown
06/24/2022 04:30 AM 71.24 57.02 12.02 102.92 69.98 9.0 Not Reported 2.91 SE 3.36 SE 4.03 SE x x Other     x x x x x 29.84 Unknown
06/24/2022 04:31 AM 71.06 56.84 11.84 102.92 69.98 9.0 Not Reported 3.13 SE 3.13 SE 4.03 SE x x Other     x x x x x 29.84 Unknown
06/24/2022 04:32 AM 71.06 56.84 11.84 102.92 69.98 9.0 Not Reported 3.13 SE 2.68 SE 4.03 SE x x Other     x x x x x 29.84 Unknown
06/24/2022 04:33 AM 71.06 56.84 11.84 102.92 69.98 9.0 Not Reported 3.36 SE 4.47 SE 5.37 S x x Other     x x x x x 29.84 Unknown
06/24/2022 04:34 AM 71.06 56.84 11.84 102.92 69.98 9.0 Not Reported 4.03 SE 3.80 SE 5.37 S x x Other     x x x x x 29.84 Unknown
06/24/2022 04:35 AM 71.06 56.84 11.84 102.92 69.98 9.0 Not Reported 3.80 SE 2.91 SE 5.37 S x x Other     x x x x x 29.84 Unknown
06/24/2022 04:36 AM 71.06 56.84 11.84 102.92 69.98 9.0 Not Reported 3.58 SE 3.58 SE 5.59 SE x x Other     x x x x x 29.84 Unknown
06/24/2022 04:37 AM 71.06 56.84 11.84 102.92 69.98 9.0 Not Reported 3.36 SE 2.24 SE 5.59 SE x x Other     x x x x x 29.84 Unknown
06/24/2022 04:38 AM 71.06 56.84 11.84 102.92 69.98 9.0 Not Reported 2.46 SE 2.46 SE 5.59 SE x x Other     x x x x x 29.84 Unknown
06/24/2022 04:39 AM 71.06 56.84 11.66 102.92 69.98 9.0 Not Reported 2.46 SE 2.91 SE 5.59 SE x x Other     x x x x x 29.84 Unknown
06/24/2022 04:40 AM 71.06 56.84 11.66 102.92 69.98 9.0 Not Reported 2.91 SE 2.91 SE 5.59 SE x x Other     x x x x x 29.84 Unknown
06/24/2022 04:41 AM 70.88 56.66 11.66 102.92 69.98 9.0 Not Reported 2.91 SE 2.68 SE 5.59 SE x x Other     x x x x x 29.84 Unknown
06/24/2022 04:42 AM 70.70 56.66 11.48 102.92 69.98 9.0 Not Reported 2.68 SE 2.24 SE 5.59 SE x x Other     x x x x x 29.84 Unknown
06/24/2022 04:43 AM 70.70 56.66 11.48 102.92 69.98 9.0 Not Reported 2.46 SE 2.24 SE 5.59 SE x x Other     x x x x x 29.84 Unknown
06/24/2022 04:44 AM 70.52 56.48 11.30 102.92 69.98 9.0 Not Reported 2.46 SE 2.68 SE 5.59 SE x x Other     x x x x x 29.84 Unknown
06/24/2022 04:45 AM 70.52 56.48 11.30 102.92 69.98 9.0 Not Reported 2.68 SE 2.46 SE 4.03 SE x x Other     x x x x x 29.84 Unknown
06/24/2022 04:46 AM 70.34 56.48 11.30 102.92 69.98 9.0 Not Reported 2.68 SE 2.68 SE 3.13 SE x x Other     x x x x x 29.84 Unknown
06/24/2022 04:47 AM 70.34 56.48 11.30 102.92 69.98 9.0 Not Reported 2.68 SE 2.91 SE 3.13 SE x x Other     x x x x x 29.84 Unknown
06/24/2022 04:48 AM 70.16 56.30 11.12 102.92 69.98 9.0 Not Reported 2.91 SE 3.13 SE 3.58 E x x Other     x x x x x 29.84 Unknown
06/24/2022 04:49 AM 70.16 56.30 11.12 102.92 69.98 9.0 Not Reported 3.13 SE 3.13 SE 3.58 E x x Other     x x x x x 29.84 Unknown
06/24/2022 04:50 AM 70.34 56.48 11.30 102.92 69.98 9.0 Not Reported 3.36 SE 3.13 SE 4.03 SE x x Other     x x x x x 29.84 Unknown
06/24/2022 04:51 AM 70.34 56.48 11.30 102.92 69.98 9.0 Not Reported 3.13 SE 2.68 SE 4.03 SE x x Other     x x x x x 29.84 Unknown
06/24/2022 04:52 AM 70.70 56.66 11.48 102.92 69.98 9.0 Not Reported 3.13 SE 4.03 SE 4.03 SE x x Other     x x x x x 29.84 Unknown
06/24/2022 04:53 AM 70.88 56.66 11.66 102.92 69.98 9.0 Not Reported 3.58 SE 4.25 SE 4.03 SE x x Other     x x x x x 29.84 Unknown
06/24/2022 04:54 AM 71.06 56.84 11.84 102.92 69.98 9.0 Not Reported 3.80 SE 4.03 SE 4.47 SE x x Other     x x x x x 29.84 Unknown
06/24/2022 04:55 AM 71.24 57.02 12.02 102.92 69.98 9.0 Not Reported 4.03 SE 4.25 SE 4.47 SE x x Other     x x x x x 29.84 Unknown
06/24/2022 04:56 AM 71.42 57.02 12.02 102.92 69.98 9.0 Not Reported 4.03 SE 4.70 SE 4.70 SE x x Other     x x x x x 29.84 Unknown
06/24/2022 04:57 AM 71.60 57.20 12.20 102.92 69.98 9.0 Not Reported 4.25 SE 4.25 SE 5.37 S x x Other     x x x x x 29.84 Unknown
06/24/2022 04:58 AM 71.78 57.20 12.38 102.92 69.98 9.0 Not Reported 4.47 SE 4.92 SE 5.59 S x x Other     x x x x x 29.84 Unknown
06/24/2022 04:59 AM 71.78 57.20 12.38 102.92 69.98 x Not Reported 4.70 SE 4.70 SE 5.59 S x x Other     x x x x x 29.84 Unknown
06/24/2022 05:00 AM 71.78 57.20 12.38 102.92 69.98 9.0 Not Reported 4.92 SE 4.70 SE 5.59 S x x Other     x x x x x 29.84 Unknown
06/24/2022 05:01 AM 72.14 57.38 12.56 102.92 69.98 9.0 Not Reported 5.14 SE 4.92 S 6.49 SE x x Other     x x x x x 29.84 Unknown
06/24/2022 05:02 AM 72.32 57.74 12.74 102.92 69.98 9.0 Not Reported 4.92 S 3.58 S 6.49 SE x x Other     x x x x x 29.84 Unknown
06/24/2022 05:03 AM 72.68 57.92 13.10 102.92 69.98 9.0 Not Reported 3.58 S 2.46 S 6.49 SE x x Other     x x x x x 29.84 Unknown
06/24/2022 05:04 AM 73.22 58.10 13.28 102.92 69.98 9.0 Not Reported 3.36 S 6.04 SE 6.49 SE x x Other     x x x x x 29.84 Unknown
06/24/2022 05:05 AM 73.40 58.28 13.64 102.92 69.98 9.0 Not Reported 4.92 S 4.92 S 6.93 SE x x Other     x x x x x 29.84 Unknown
06/24/2022 05:06 AM 73.76 58.46 13.82 102.92 69.98 9.0 Not Reported 5.82 S 6.93 SE 6.93 SE x x Other     x x x x x 29.84 Unknown
06/24/2022 05:07 AM 73.76 58.46 13.82 102.92 69.98 9.0 Not Reported 5.59 SE 5.14 S 6.93 SE x x Other     x x x x x 29.84 Unknown
06/24/2022 05:08 AM 73.94 58.64 14.00 102.92 69.98 9.0 Not Reported 5.14 S 4.03 S 6.93 SE x x Other     x x x x x 29.84 Unknown
06/24/2022 05:09 AM 73.94 58.64 14.00 102.92 69.98 9.0 Not Reported 4.47 S 4.25 S 6.93 SE x x Other     x x x x x 29.84 Unknown
06/24/2022 05:10 AM 73.76 58.46 13.82 102.92 69.98 9.0 Not Reported 4.47 S 4.70 S 6.93 SE x x Other     x x x x x 29.84 Unknown
06/24/2022 05:11 AM 73.58 58.46 13.64 102.92 69.98 9.0 Not Reported 4.47 S 4.92 S 6.93 SE x x Other     x x x x x 29.84 Unknown
06/24/2022 05:12 AM 73.58 58.46 13.64 102.92 69.98 9.0 Not Reported 4.92 S 4.25 S 6.93 SE x x Other     x x x x x 29.84 Unknown
06/24/2022 05:13 AM 73.40 58.28 13.64 102.92 69.98 9.0 Not Reported 5.14 S 4.70 S 6.93 SE x x Other     x x x x x 29.84 Unknown
06/24/2022 05:14 AM 73.40 58.28 13.64 102.92 69.98 9.0 Not Reported 4.70 S 4.03 S 6.93 S x x Other     x x x x x 29.84 Unknown
06/24/2022 05:15 AM 73.22 58.28 13.46 102.92 69.98 9.0 Not Reported 4.03 S 6.04 S 6.93 S x x Other     x x x x x 29.84 Unknown
06/24/2022 05:16 AM 73.22 58.28 13.46 102.92 69.98 9.0 Not Reported 4.03 S 2.91 S 6.49 SE x x Other     x x x x x 29.84 Unknown
06/24/2022 05:17 AM 73.22 58.28 13.46 102.92 69.98 9.0 Not Reported 4.03 S 4.70 S 6.49 SE x x Other     x x x x x 29.84 Unknown
06/24/2022 05:18 AM 73.22 58.28 13.46 102.92 69.98 9.0 Not Reported 4.70 S 5.14 S 6.49 SE x x Other     x x x x x 29.84 Unknown
06/24/2022 05:19 AM 73.22 58.28 13.46 102.92 69.98 9.0 Not Reported 5.37 S 4.92 S 6.93 S x x Other     x x x x x 29.84 Unknown
06/24/2022 05:20 AM 73.22 58.10 13.28 102.92 69.98 9.0 Not Reported 4.70 S 3.80 S 6.93 S x x Other     x x x x x 29.84 Unknown
06/24/2022 05:21 AM 73.22 58.10 13.28 102.92 70.16 9.0 Not Reported 4.03 S 4.47 SE 6.93 S x x Other     x x x x x 29.84 Unknown
06/24/2022 05:22 AM 73.04 58.10 13.28 102.92 70.16 9.0 Not Reported 4.47 S 5.14 S 6.93 S x x Other     x x x x x 29.84 Unknown
06/24/2022 05:23 AM 72.86 57.92 13.10 102.92 70.16 9.0 Not Reported 5.14 S 5.59 S 6.93 S x x Other     x x x x x 29.84 Unknown
06/24/2022 05:24 AM 72.86 57.92 13.10 102.92 70.16 9.0 Not Reported 5.37 S 5.14 S 6.93 S x x Other     x x x x x 29.84 Unknown
06/24/2022 05:25 AM 72.68 57.92 13.10 102.92 70.16 9.0 Not Reported 5.59 S 4.92 S 6.93 S x x Other     x x x x x 29.84 Unknown
06/24/2022 05:26 AM 72.50 57.74 12.92 102.92 70.16 9.0 Not Reported 5.37 S 5.59 S 6.93 S x x Other     x x x x x 29.84 Unknown
06/24/2022 05:27 AM 72.50 57.74 12.92 102.92 70.16 9.0 Not Reported 5.59 S 6.26 S 7.61 S x x Other     x x x x x 29.84 Unknown
06/24/2022 05:28 AM 72.50 57.74 12.92 102.92 70.16 9.0 Not Reported 5.82 S 6.49 SE 7.61 S x x Other     x x x x x 29.84 Unknown
06/24/2022 05:29 AM 72.50 57.74 12.92 102.92 70.16 9.0 Not Reported 6.26 S 7.38 S 7.61 S x x Other     x x x x x 29.84 Unknown
06/24/2022 05:30 AM 72.68 57.92 13.10 102.92 70.16 9.0 Not Reported 6.49 S 6.93 S 7.83 S x x Other     x x x x x 29.84 Unknown
06/24/2022 05:31 AM 72.86 57.92 13.10 x 70.16 9.0 Not Reported 6.71 S 5.82 S 8.50 SE x x Other     x x x x x 29.84 Unknown
06/24/2022 05:32 AM 73.04 58.10 13.28 102.92 70.16 9.0 Not Reported 6.49 S 6.26 SE 8.50 SE x x Other     x x x x x 29.84 Unknown
06/24/2022 05:33 AM 73.22 58.10 13.28 102.92 70.16 9.0 Not Reported 6.04 S 5.82 S 8.50 SE x x Other     x x x x x 29.84 Unknown
06/24/2022 05:34 AM 73.22 58.10 13.28 102.92 70.16 9.0 Not Reported 5.82 S 5.59 S 8.50 SE x x Other     x x x x x 29.84 Unknown
06/24/2022 05:35 AM 73.22 58.10 13.28 102.92 70.16 9.0 Not Reported 5.59 S 4.92 S 8.50 SE x x Other     x x x x x 29.84 Unknown
06/24/2022 05:36 AM 73.22 58.28 13.46 102.92 70.16 9.0 Not Reported 5.14 S 4.92 S 8.50 SE x x Other     x x x x x 29.84 Unknown
06/24/2022 05:37 AM 73.22 58.28 13.46 102.92 70.16 9.0 Not Reported 4.47 S 5.59 S 8.50 SE x x Other     x x x x x 29.84 Unknown
06/24/2022 05:38 AM 73.22 58.28 13.46 102.92 70.16 9.0 Not Reported 4.92 S 5.82 SE 8.50 SE x x Other     x x x x x 29.84 Unknown
06/24/2022 05:39 AM 73.40 58.28 13.64 102.92 70.16 9.0 Not Reported 5.82 SE 5.37 S 8.50 SE x x Other     x x x x x 29.84 Unknown
06/24/2022 05:40 AM 73.58 58.46 13.64 102.92 70.16 9.0 Not Reported 5.82 SE 5.14 S 7.16 S x x Other     x x x x x 29.84 Unknown
06/24/2022 05:41 AM 73.76 58.46 13.82 102.92 70.16 9.0 Not Reported 5.59 S 4.92 SE 6.71 S x x Other     x x x x x 29.84 Unknown
06/24/2022 05:42 AM 73.76 58.46 13.82 102.92 70.16 9.0 Not Reported 5.37 S 5.59 SE 6.71 SE x x Other     x x x x x 29.84 Unknown
06/24/2022 05:43 AM 73.76 58.46 13.82 102.92 70.16 9.0 Not Reported 4.92 SE 4.25 SE 6.71 SE x x Other     x x x x x 29.84 Unknown
06/24/2022 05:44 AM 73.76 58.46 13.82 102.92 70.16 9.0 Not Reported 4.92 SE 4.70 SE 6.93 S x x Other     x x x x x 29.84 Unknown
06/24/2022 05:45 AM 73.58 58.46 13.64 102.92 70.16 9.0 Not Reported 5.59 SE 4.47 SE 6.93 S x x Other     x x x x x 29.84 Unknown
06/24/2022 05:46 AM 73.40 58.28 13.64 102.92 70.16 9.0 Not Reported 5.37 SE 4.47 S 7.16 SE x x Other     x x x x x 29.84 Unknown
06/24/2022 05:47 AM 73.40 58.28 13.64 102.92 70.16 9.0 Not Reported 5.59 SE 6.49 SE 8.05 S x x Other     x x x x x 29.84 Unknown
06/24/2022 05:48 AM 73.40 58.28 13.64 102.92 70.16 9.0 Not Reported 6.71 SE 7.61 SE 8.72 SE x x Other     x x x x x 29.84 Unknown
06/24/2022 05:49 AM 73.22 58.28 13.46 102.92 70.16 9.0 Not Reported 7.38 SE 6.49 S 8.95 SE x x Other     x x x x x 29.84 Unknown
06/24/2022 05:50 AM 73.22 58.28 13.46 102.92 70.16 9.0 Not Reported 7.16 S 5.59 SE 8.95 SE x x Other     x x x x x 29.84 Unknown
06/24/2022 05:51 AM 73.22 58.28 13.46 102.92 70.16 9.0 Not Reported 6.71 S 6.26 S 8.95 SE x x Other     x x x x x 29.84 Unknown
06/24/2022 05:52 AM 73.22 58.10 13.28 102.92 70.16 9.0 Not Reported 6.71 S 6.93 S 8.95 SE x x Other     x x x x x 29.84 Unknown
06/24/2022 05:53 AM 73.22 58.10 13.28 102.92 70.16 9.0 Not Reported 6.71 S 7.61 SE 8.95 SE x x Other     x x x x x 29.84 Unknown
06/24/2022 05:54 AM 73.22 58.10 13.28 102.92 70.16 9.0 Not Reported 6.71 S 7.38 SE 8.95 SE x x Other     x x x x x 29.84 Unknown
06/24/2022 05:55 AM 73.04 58.10 13.28 102.92 70.16 9.0 Not Reported 6.71 S 5.59 S 8.95 SE x x Other     x x x x x 29.84 Unknown
06/24/2022 05:56 AM 73.22 58.10 13.28 102.92 70.16 9.0 Not Reported 6.71 S 6.49 SE 8.95 SE x x Other     x x x x x 29.84 Unknown
06/24/2022 05:57 AM 73.22 58.28 13.28 102.92 70.16 9.0 Not Reported 6.49 S 5.59 S 8.95 SE x x Other     x x x x x 29.84 Unknown
06/24/2022 05:58 AM 73.22 58.28 13.46 102.92 70.16 9.0 Not Reported 6.04 S 4.92 S 8.50 S x x Other     x x x x x 29.84 Unknown
06/24/2022 05:59 AM 73.22 58.28 13.46 102.92 70.16 9.0 Not Reported 5.14 S 4.70 SE 8.50 S x x Other     x x x x x 29.84 Unknown
06/24/2022 06:00 AM 73.22 58.28 13.46 102.92 70.16 9.0 Not Reported 4.70 SE 5.59 SE 8.50 S x x Other     x x x x x 29.84 Unknown
06/24/2022 06:01 AM 73.40 58.28 13.64 102.92 70.16 9.0 Not Reported 5.59 SE 7.38 S 8.50 S x x Other     x x x x x 29.84 Unknown
06/24/2022 06:02 AM 73.40 58.28 13.64 102.92 70.16 9.0 Not Reported 5.82 SE 4.92 S 8.50 S x x Other     x x x x x 29.84 Unknown
06/24/2022 06:03 AM 73.40 58.28 13.64 102.92 70.16 9.0 Not Reported 5.14 S 6.04 SE 8.50 S x x Other     x x x x x 29.84 Unknown
06/24/2022 06:04 AM 73.22 58.28 13.46 102.92 70.16 9.0 Not Reported 5.37 S 4.92 S 7.61 S x x Other     x x x x x 29.84 Unknown
06/24/2022 06:05 AM 73.22 58.28 13.46 102.92 70.16 9.0 Not Reported 5.14 S 4.70 S 7.61 S x x Other     x x x x x 29.84 Unknown
06/24/2022 06:06 AM 73.22 58.10 13.28 102.92 70.16 9.0 Not Reported 4.70 S 5.14 S 7.38 S x x Other     x x x x x 29.84 Unknown
06/24/2022 06:07 AM 73.04 58.10 13.28 102.92 70.16 9.0 Not Reported 5.14 S 5.14 S 7.38 S x x Other     x x x x x 29.84 Unknown
06/24/2022 06:08 AM 72.86 57.92 13.10 102.92 70.16 9.0 Not Reported 5.37 S 5.37 S 7.38 S x x Other     x x x x x 29.84 Unknown
06/24/2022 06:09 AM 72.86 57.92 13.10 102.92 70.16 9.0 Not Reported 4.92 S 4.92 S 7.38 S x x Other     x x x x x 29.84 Unknown
06/24/2022 06:10 AM 72.68 57.92 13.10 102.92 70.16 9.0 Not Reported 4.92 S 3.58 S 7.38 S x x Other     x x x x x 29.84 Unknown
06/24/2022 06:11 AM 72.50 57.74 12.92 102.92 70.16 9.0 Not Reported 4.47 S 4.92 S 6.71 S x x Other     x x x x x 29.84 Unknown
06/24/2022 06:12 AM 72.50 57.74 12.92 102.92 70.16 9.0 Not Reported 4.25 S 4.92 S 6.71 S x x Other     x x x x x 29.84 Unknown
06/24/2022 06:13 AM 72.50 57.74 12.92 102.92 70.16 9.0 Not Reported 4.25 S 3.80 S 6.26 S x x Other     x x x x x 29.84 Unknown
06/24/2022 06:14 AM 72.50 57.74 12.92 102.92 70.16 9.0 Not Reported 4.03 S 4.70 S 6.26 S x x Other     x x x x x 29.84 Unknown
06/24/2022 06:15 AM 72.50 57.74 12.92 102.92 70.16 9.0 Not Reported 4.03 S 4.25 S 6.26 S x x Other     x x x x x 29.84 Unknown
06/24/2022 06:16 AM 72.50 57.74 12.92 102.92 70.16 9.0 Not Reported 4.25 S 3.36 S 6.04 S x x Other     x x x x x 29.84 Unknown
06/24/2022 06:17 AM 72.68 57.92 13.10 102.92 70.16 9.0 Not Reported 4.25 S 3.80 S 6.04 S x x Other     x x x x x 29.84 Unknown
06/24/2022 06:18 AM 72.68 57.92 13.10 102.92 70.16 9.0 Not Reported 4.25 S 3.13 S 5.82 S x x Other     x x x x x 29.84 Unknown
06/24/2022 06:19 AM 72.68 57.92 13.10 102.92 70.16 9.0 Not Reported 4.25 S 4.25 S 5.82 S x x Other     x x x x x 29.84 Unknown
06/24/2022 06:20 AM 72.68 57.92 13.10 102.92 70.16 9.0 Not Reported 3.80 S 4.25 SW 5.82 S x x Other     x x x x x 29.84 Unknown
06/24/2022 06:21 AM 72.68 57.92 13.10 102.92 70.16 9.0 Not Reported 3.58 S 3.36 S 5.82 S x x Other     x x x x x 29.84 Unknown
06/24/2022 06:22 AM 72.68 57.92 13.10 102.92 70.16 9.0 Not Reported 3.13 S 2.24 SW 5.82 S x x Other     x x x x x 29.84 Unknown
06/24/2022 06:23 AM 72.68 57.92 13.10 102.92 70.16 9.0 Not Reported 2.24 S 2.01 S 5.59 S x x Other     x x x x x 29.84 Unknown
06/24/2022 06:24 AM 72.68 57.92 13.10 102.92 70.16 9.0 Not Reported 2.24 S 2.24 S 5.59 S x x Other     x x x x x 29.84 Unknown
06/24/2022 06:25 AM 72.68 57.74 13.10 102.92 70.16 9.0 Not Reported 2.24 S 2.01 S 5.59 S x x Other     x x x x x 29.84 Unknown
06/24/2022 06:26 AM 72.50 57.74 12.92 102.92 70.16 9.0 Not Reported 2.46 S 3.80 SW 5.59 S x x Other     x x x x x 29.84 Unknown
06/24/2022 06:27 AM 72.50 57.74 12.92 102.92 70.16 9.0 Not Reported 3.80 S 4.25 S 5.59 S x x Other     x x x x x 29.84 Unknown
06/24/2022 06:28 AM 72.50 57.74 12.92 102.92 70.16 9.0 Not Reported 4.03 S 2.91 S 5.59 S x x Other     x x x x x 29.84 Unknown
06/24/2022 06:29 AM 72.50 57.74 12.92 102.92 70.16 9.0 Not Reported 3.36 S 2.24 SW 5.59 S x x Other     x x x x x 29.84 Unknown
06/24/2022 06:30 AM 72.50 57.74 12.92 102.92 70.16 9.0 Not Reported 3.13 S 4.03 SE 5.59 S x x Other     x x x x x 29.84 Unknown
06/24/2022 06:31 AM 72.50 57.74 12.92 102.92 70.16 9.0 Not Reported 3.36 S 4.25 S 5.59 S x x Other     x x x x x 29.84 Unknown
06/24/2022 06:32 AM 72.50 57.74 12.92 102.92 70.16 9.0 Not Reported 4.03 S 5.59 S 6.71 S x x Other     x x x x x 29.84 Unknown
06/24/2022 06:33 AM 72.50 57.74 12.92 102.92 70.16 9.0 Not Reported 5.14 S 5.82 S 6.71 S x x Other     x x x x x 29.84 Unknown
06/24/2022 06:34 AM 72.50 57.92 12.92 102.92 70.16 9.0 Not Reported 5.14 SW 4.25 SW 6.71 S x x Other     x x x x x 29.84 Unknown
06/24/2022 06:35 AM 72.68 57.92 13.10 102.92 70.16 9.0 Not Reported 4.92 SW 3.80 SW 6.71 S x x Other     x x x x x 29.84 Unknown
06/24/2022 06:36 AM 72.68 57.92 13.10 102.92 70.16 9.0 Not Reported 4.92 SW 6.04 SW 6.71 S x x Other     x x x x x 29.84 Unknown
06/24/2022 06:37 AM 72.68 57.74 12.92 102.92 70.16 9.0 Not Reported 5.59 SW 6.93 SW 7.61 SW x x Other     x x x x x 29.84 Unknown
06/24/2022 06:38 AM 72.68 57.92 13.10 102.92 70.16 9.0 Not Reported 6.04 SW 5.59 SW 7.61 SW x x Other     x x x x x 29.84 Unknown
06/24/2022 06:39 AM 72.86 57.92 13.10 102.92 70.16 9.0 Not Reported 5.37 SW 3.36 S 7.61 SW x x Other     x x x x x 29.84 Unknown
06/24/2022 06:40 AM 73.04 58.10 13.28 102.92 70.16 9.0 Not Reported 4.92 SW 4.03 SW 7.61 SW x x Other     x x x x x 29.84 Unknown
06/24/2022 06:41 AM 73.22 58.28 13.46 102.92 70.16 9.0 Not Reported 4.25 SW 4.47 S 7.61 SW x x Other     x x x x x 29.84 Unknown
06/24/2022 06:42 AM 73.40 58.28 13.64 102.92 70.16 9.0 Not Reported 4.47 SW 5.37 S 7.61 SW x x Other     x x x x x 29.84 Unknown
06/24/2022 06:43 AM 73.58 58.46 13.64 102.92 70.16 9.0 Not Reported 5.14 SW 3.58 S 7.61 SW x x Other     x x x x x 29.84 Unknown
06/24/2022 06:44 AM 73.94 58.64 14.00 102.92 70.16 9.0 Not Reported 4.92 S 3.58 SW 7.61 SW x x Other     x x x x x 29.84 Unknown
06/24/2022 06:45 AM 74.12 58.64 14.00 102.92 70.16 9.0 Not Reported 4.03 S 1.79 SW 7.61 SW x x Other     x x x x x 29.84 Unknown
06/24/2022 06:46 AM 74.30 58.82 14.36 102.92 70.16 9.0 Not Reported 2.91 SW 3.80 SW 7.16 SW x x Other     x x x x x 29.84 Unknown
06/24/2022 06:47 AM 74.66 59.00 14.54 102.92 70.16 9.0 Not Reported 2.91 SW 1.79 SW 6.71 SW x x Other     x x x x x 29.84 Unknown
06/24/2022 06:48 AM 75.20 59.36 14.90 102.92 70.16 9.0 Not Reported 2.46 SW 1.57 S 6.26 SW x x Other     x x x x x 29.84 Unknown
06/24/2022 06:49 AM 75.38 59.54 15.08 102.92 70.16 9.0 Not Reported 1.34 SW 0.00 SW 6.26 SW x x Other     x x x x x 29.84 Unknown
06/24/2022 06:50 AM 75.74 59.72 15.44 102.92 70.16 9.0 Not Reported 1.34 S 2.68 S 6.26 SW x x Other     x x x x x 29.84 Unknown
06/24/2022 06:51 AM 76.10 59.90 15.62 102.92 70.16 9.0 Not Reported 2.01 S 3.36 S 6.26 SW x x Other     x x x x x 29.84 Unknown
06/24/2022 06:52 AM 76.28 59.90 15.80 102.92 70.16 9.0 Not Reported 2.91 S 3.36 S 5.37 SW x x Other     x x x x x 29.84 Unknown
06/24/2022 06:53 AM 76.46 60.08 15.98 102.92 70.16 9.0 Not Reported 3.13 S 3.13 S 4.92 SW x x Other     x x x x x 29.84 Unknown
06/24/2022 06:54 AM 76.64 60.26 16.16 102.92 70.16 9.0 Not Reported 2.91 S 2.91 S 4.92 SW x x Other     x x x x x 29.84 Unknown
06/24/2022 06:55 AM 77.00 60.44 x 102.92 70.16 9.0 Not Reported 2.24 S 0.00 NE 4.92 SW x x Other     x x x x x 29.84 Unknown
06/24/2022 06:56 AM 77.18 60.44 16.52 102.92 70.16 9.0 Not Reported 1.12 SE 0.89 S 4.03 S x x Other     x x x x x 29.84 Unknown
06/24/2022 06:57 AM 77.18 60.44 16.52 102.92 70.16 9.0 Not Reported 1.12 S 4.25 S 4.03 S x x Other     x x x x x 29.84 Unknown
06/24/2022 06:58 AM 77.36 60.62 16.52 102.92 70.16 9.0 Not Reported 2.46 S 1.34 SW 5.37 S x x Other     x x x x x 29.84 Unknown
06/24/2022 06:59 AM 77.54 60.80 16.70 102.92 70.16 9.0 Not Reported 2.24 S 0.89 W 5.37 S x x Other     x x x x x 29.84 Unknown
06/24/2022 07:00 AM 77.72 60.80 16.88 102.92 70.16 9.0 Not Reported 1.34 SW 1.79 SW 5.37 S x x Other     x x x x x 29.84 Unknown
06/24/2022 07:01 AM 77.72 60.80 16.88 102.92 70.16 9.0 Not Reported 1.79 S 2.91 S 5.37 S x x Other     x x x x x 29.84 Unknown
06/24/2022 07:02 AM 77.90 60.98 17.06 102.92 70.16 9.0 Not Reported 2.24 S 0.45 SW 5.37 S x x Other     x x x x x 29.84 Unknown
06/24/2022 07:03 AM 77.90 60.98 17.06 102.92 70.16 9.0 Not Reported 1.12 S 0.22 NW 5.37 S x x Other     x x x x x 29.84 Unknown
06/24/2022 07:04 AM 78.08 60.98 17.06 102.92 70.16 9.0 Not Reported 0.89 NW 1.57 W 5.37 S x x Other     x x x x x 29.84 Unknown
06/24/2022 07:05 AM 77.90 60.98 17.06 102.92 70.16 9.0 Not Reported 1.34 W 1.79 W 5.37 S x x Other     x x x x x 29.84 Unknown
06/24/2022 07:06 AM 77.90 60.98 17.06 102.92 70.16 9.0 Not Reported 0.89 W 0.00 SW 5.37 S x x Other     x x x x x 29.84 Unknown
06/24/2022 07:07 AM 77.90 60.98 17.06 102.92 70.16 9.0 Not Reported 0.67 S 1.12 SW 4.03 S x x Other     x x x x x 29.84 Unknown
06/24/2022 07:08 AM 78.08 60.98 17.06 102.92 70.16 9.0 Not Reported 1.12 S 1.12 SW 3.36 SW x x Other     x x x x x 29.84 Unknown
06/24/2022 07:09 AM 78.26 61.16 17.24 102.92 70.16 9.0 Not Reported 1.57 W 0.89 NW 3.36 SW x x Other     x x x x x 29.84 Unknown
06/24/2022 07:10 AM 78.62 61.34 17.42 102.92 70.16 9.0 Not Reported 1.79 NW 0.45 SW 3.80 W x x Other     x x x x x 29.84 Unknown
06/24/2022 07:11 AM 78.62 61.34 17.60 102.92 70.16 9.0 Not Reported 2.46 W 3.58 W 3.80 NW x x Other     x x x x x 29.84 Unknown
06/24/2022 07:12 AM 78.62 61.34 17.42 102.92 70.16 9.0 Not Reported 2.91 W 3.58 W 4.25 W x x Other     x x x x x 29.84 Unknown
06/24/2022 07:13 AM 78.62 61.34 17.42 102.92 70.16 9.0 Not Reported 3.13 W 2.24 W 4.25 W x x Other     x x x x x 29.84 Unknown
06/24/2022 07:14 AM 78.62 61.34 17.42 102.92 70.16 9.0 Not Reported 2.68 W 4.03 W 4.25 W x x Other     x x x x x 29.84 Unknown
06/24/2022 07:15 AM 78.62 61.34 17.42 102.92 70.16 9.0 Not Reported 3.36 W 4.92 SW 4.92 x x x Other     x x x x x 29.84 Unknown
06/24/2022 07:16 AM 78.62 61.34 17.42 102.92 70.16 9.0 Not Reported 4.70 W 5.14 SW 5.82 SW x x Other     x x x x x 29.84 Unknown
06/24/2022 07:17 AM 78.62 61.34 17.42 102.92 70.16 9.0 Not Reported 4.92 SW 4.47 SW 5.82 SW x x Other     x x x x x 29.84 Unknown
06/24/2022 07:18 AM 78.44 61.16 17.42 102.92 70.16 9.0 Not Reported 4.70 SW 3.36 SW 5.82 SW x x Other     x x x x x 29.84 Unknown
06/24/2022 07:19 AM 78.62 61.16 17.42 102.92 70.16 9.0 Not Reported 3.58 W 2.46 W 5.82 SW x x Other     x x x x x 29.84 Unknown
06/24/2022 07:20 AM 78.62 61.34 17.42 102.92 70.16 9.0 Not Reported 2.68 W 2.01 W 5.82 SW x x Other     x x x x x 29.84 Unknown
06/24/2022 07:21 AM 78.62 61.34 17.42 102.92 70.16 9.0 Not Reported 3.13 W 4.03 W 5.82 SW x x Other     x x x x x 29.84 Unknown
06/24/2022 07:22 AM 78.62 61.34 17.42 102.92 70.16 9.0 Not Reported 3.36 W 3.13 W 5.82 SW x x Other     x x x x x 29.84 Unknown
06/24/2022 07:23 AM 78.62 61.34 17.42 102.92 70.16 9.0 Not Reported 3.13 W 2.68 W 5.82 SW x x Other     x x x x x 29.84 Unknown
06/24/2022 07:24 AM 78.62 61.34 17.42 102.92 70.16 9.0 Not Reported 3.13 W 2.91 W 5.82 SW x x Other     x x x x x 29.84 Unknown
06/24/2022 07:25 AM 78.62 61.34 17.60 102.92 70.16 9.0 Not Reported 3.36 W 2.46 SW 5.82 W x x Other     x x x x x 29.84 Unknown
06/24/2022 07:26 AM 78.62 61.34 17.42 102.92 70.16 9.0 Not Reported 4.03 SW 4.70 W 5.59 SW x x Other     x x x x x 29.84 Unknown
06/24/2022 07:27 AM 78.62 61.34 17.60 102.92 70.16 9.0 Not Reported 3.80 W 2.46 W 6.04 W x x Other     x x x x x 29.84 Unknown
06/24/2022 07:28 AM 78.62 61.52 17.78 102.92 70.16 9.0 Not Reported 2.01 NW 0.22 W 6.04 W x x Other     x x x x x 29.84 Unknown
06/24/2022 07:29 AM 78.80 61.52 17.78 102.92 70.16 9.0 Not Reported 0.67 NW 0.00 W 6.04 W x x Other     x x x x x 29.84 Unknown
06/24/2022 07:30 AM 78.98 61.52 17.78 102.92 70.16 9.0 Not Reported 0.67 SW 2.01 W 6.04 W x x Other     x x x x x 29.84 Unknown
06/24/2022 07:31 AM 78.98 61.52 17.78 102.92 70.16 9.0 Not Reported 1.57 W 2.91 NW 6.04 W x x Other     x x x x x 29.84 Unknown
06/24/2022 07:32 AM 79.16 61.70 17.96 102.92 70.16 9.0 Not Reported 2.24 W 2.68 W 6.04 W x x Other     x x x x x 29.84 Unknown
06/24/2022 07:33 AM 79.34 61.70 18.14 102.92 70.16 9.0 Not Reported 2.46 W 2.01 W 6.04 W x x Other     x x x x x 29.84 Unknown
06/24/2022 07:34 AM 79.52 61.88 18.14 102.92 70.16 9.0 Not Reported 2.01 W 1.79 W 6.04 W x x Other     x x x x x 29.84 Unknown
06/24/2022 07:35 AM 79.70 61.88 18.32 102.92 70.16 9.0 Not Reported 1.57 W 0.67 SE 6.04 W x x Other     x x x x x 29.84 Unknown
06/24/2022 07:36 AM 79.70 62.06 18.50 102.92 70.16 9.0 Not Reported 1.12 W 2.46 S 3.58 NW x x Other     x x x x x 29.84 Unknown
06/24/2022 07:37 AM 79.88 62.06 18.50 102.92 70.16 9.0 Not Reported 0.67 W 1.79 W 3.58 NW x x Other     x x x x x 29.84 Unknown
06/24/2022 07:38 AM 79.88 62.06 18.50 102.92 70.16 9.0 Not Reported 1.12 W 2.01 W 3.58 NW x x Other     x x x x x 29.84 Unknown
06/24/2022 07:39 AM 80.06 62.24 18.68 102.92 70.16 9.0 Not Reported 1.79 W 1.79 SW 3.58 NW x x Other     x x x x x 29.84 Unknown
06/24/2022 07:40 AM 80.06 62.24 18.68 102.92 70.16 9.0 Not Reported 2.01 W 3.36 W 4.25 W x x Other     x x x x x 29.84 Unknown
06/24/2022 07:41 AM 80.24 62.24 18.68 102.92 70.16 9.0 Not Reported 2.46 W 2.91 NW 4.25 W x x Other     x x x x x 29.84 Unknown
06/24/2022 07:42 AM 80.42 62.24 18.86 102.92 70.16 9.0 Not Reported 2.68 W 2.24 SW 4.25 W x x Other     x x x x x 29.84 Unknown
06/24/2022 07:43 AM 80.60 62.42 19.04 102.92 70.16 9.0 Not Reported 2.68 W 2.68 W 4.25 W x x Other     x x x x x 29.84 Unknown
06/24/2022 07:44 AM 80.60 62.42 19.04 102.92 70.16 9.0 Not Reported 2.46 W 2.91 W 4.25 W x x Other     x x x x x 29.84 Unknown
06/24/2022 07:45 AM 80.78 62.60 19.22 102.92 70.16 9.0 Not Reported 2.01 W 1.79 W 4.25 W x x Other     x x x x x 29.84 Unknown
06/24/2022 07:46 AM 80.96 62.60 19.40 102.92 70.16 9.0 Not Reported 2.24 W 3.13 NW 4.25 W x x Other     x x x x x 29.84 Unknown
06/24/2022 07:47 AM 81.14 62.78 19.40 102.92 70.16 9.0 Not Reported 2.46 W 1.34 W 4.25 W x x Other     x x x x x 29.84 Unknown
06/24/2022 07:48 AM 81.32 62.78 19.58 102.92 70.16 9.0 Not Reported 1.79 W 1.79 W 4.25 W x x Other     x x x x x 29.84 Unknown
06/24/2022 07:49 AM 81.68 62.96 19.76 102.92 70.16 9.0 Not Reported 1.79 W 2.91 NW 4.25 W x x Other     x x x x x 29.84 Unknown
06/24/2022 07:50 AM 81.68 63.14 19.94 102.92 70.16 9.0 Not Reported 2.68 W 2.24 NW 4.03 NW x x Other     x x x x x 29.84 Unknown
06/24/2022 07:51 AM 81.86 63.32 20.12 102.92 70.16 9.0 Not Reported 2.24 NW 2.01 NW 3.80 W x x Other     x x x x x 29.84 Unknown
06/24/2022 07:52 AM 82.22 63.32 20.30 102.92 70.16 9.0 Not Reported 1.79 NW 1.79 NW 3.80 W x x Other     x x x x x 29.84 Unknown
06/24/2022 07:53 AM 82.40 63.50 20.48 102.92 70.16 9.0 Not Reported 2.01 NW 0.22 NW 3.80 W x x Other     x x x x x 29.84 Unknown
06/24/2022 07:54 AM 82.58 63.68 20.66 102.92 70.16 9.0 Not Reported 1.12 NW 0.22 N 3.80 W x x Other     x x x x x 29.84 Unknown
06/24/2022 07:55 AM 82.76 63.68 20.66 102.92 70.16 9.0 Not Reported 0.67 NE 3.36 N 3.80 W x x Other     x x x x x 29.84 Unknown
06/24/2022 07:56 AM 82.94 63.68 20.84 102.92 70.16 9.0 Not Reported 2.01 N 3.36 NW 4.70 N x x Other     x x x x x 29.84 Unknown
06/24/2022 07:57 AM 83.12 63.86 21.02 102.92 70.16 9.0 Not Reported 3.36 NW 2.46 NW 4.70 N x x Other     x x x x x 29.84 Unknown
06/24/2022 07:58 AM 83.48 64.04 21.20 102.92 70.16 9.0 Not Reported 2.46 NW 0.89 W 4.70 N x x Other     x x x x x 29.84 Unknown
06/24/2022 07:59 AM 83.66 64.22 21.38 102.92 70.16 9.0 Not Reported 1.34 N 1.12 N 4.70 N x x Other     x x x x x 29.84 Unknown
06/24/2022 08:00 AM 83.84 64.22 21.56 102.92 70.16 9.0 Not Reported 1.12 N 2.24 N 4.70 N x x Other     x x x x x 29.84 Unknown
06/24/2022 08:01 AM 84.02 64.40 21.74 102.92 70.16 9.0 Not Reported 2.68 N 2.24 N 4.70 N x x Other     x x x x x 29.84 Unknown
06/24/2022 08:02 AM 84.20 64.40 21.74 102.92 70.16 9.0 Not Reported 3.13 N 2.01 N 4.70 N x x Other     x x x x x 29.84 Unknown
06/24/2022 08:03 AM 84.38 64.58 21.92 102.92 70.16 9.0 Not Reported 3.36 N 3.58 N 5.82 N x x Other     x x x x x 29.84 Unknown
06/24/2022 08:04 AM 84.56 64.58 22.10 102.92 70.16 9.0 Not Reported 4.03 N 2.68 N 5.82 N x x Other     x x x x x 29.84 Unknown
06/24/2022 08:05 AM 84.56 64.58 22.10 102.92 70.16 9.0 Not Reported 3.58 N 6.04 N 5.82 N x x Other     x x x x x 29.84 Unknown
06/24/2022 08:06 AM 84.74 64.76 22.10 102.92 70.16 9.0 Not Reported 4.03 N 3.58 N 6.26 N x x Other     x x x x x 29.84 Unknown
06/24/2022 08:07 AM 84.74 64.76 22.10 102.92 70.16 9.0 Not Reported 4.70 N 5.14 N 6.26 N x x Other     x x x x x 29.84 Unknown
06/24/2022 08:08 AM 84.56 64.58 22.10 102.92 70.16 9.0 Not Reported 4.92 N 4.70 N 6.26 N x x Other     x x x x x 29.84 Unknown
06/24/2022 08:09 AM 84.56 64.58 22.10 102.92 70.16 9.0 Not Reported 5.14 N 5.14 NE 6.26 N x x Other     x x x x x 29.84 Unknown
06/24/2022 08:10 AM 84.56 64.58 22.10 102.92 70.16 9.0 Not Reported 5.37 N 6.49 N 6.71 N x x Other     x x x x x 29.84 Unknown
06/24/2022 08:11 AM 84.56 64.58 22.10 102.92 70.16 9.0 Not Reported 5.59 N 5.82 N 6.93 N x x Other     x x x x x 29.84 Unknown
06/24/2022 08:12 AM 84.38 64.58 21.92 102.92 70.16 9.0 Not Reported 6.04 N 7.38 N 7.61 NE x x Other     x x x x x 29.84 Unknown
06/24/2022 08:13 AM 84.20 64.40 21.74 102.92 70.16 9.0 Not Reported 6.71 N 7.16 N 8.28 N x x Other     x x x x x 29.84 Unknown
06/24/2022 08:14 AM 84.20 64.40 21.74 102.92 70.16 9.0 Not Reported 6.93 N 7.83 NE 8.28 N x x Other     x x x x x 29.84 Unknown
06/24/2022 08:15 AM 84.20 64.40 21.74 102.92 70.16 9.0 Not Reported 6.93 N 8.05 N 8.50 N x x Other     x x x x x 29.84 Unknown
06/24/2022 08:16 AM 84.02 64.40 21.74 102.92 70.16 9.0 Not Reported 7.61 N 7.16 N 8.50 N x x Other     x x x x x 29.84 Unknown
06/24/2022 08:17 AM 84.02 64.40 21.74 102.92 70.16 9.0 Not Reported 7.61 N 8.72 NE 8.50 N x x Other     x x x x x 29.84 Unknown
06/24/2022 08:18 AM 84.02 64.40 21.74 102.92 70.16 9.0 Not Reported 7.61 N 8.05 N 8.95 NE x x Other     x x x x x 29.84 Unknown
06/24/2022 08:19 AM 83.84 64.22 21.56 102.92 70.16 9.0 Not Reported 7.16 N 5.59 NE 8.95 NE x x Other     x x x x x 29.84 Unknown
06/24/2022 08:20 AM 83.84 64.22 21.56 102.92 70.16 9.0 Not Reported 6.49 NE 5.82 NE 8.95 NE x x Other     x x x x x 29.84 Unknown
06/24/2022 08:21 AM 83.84 64.22 21.56 102.92 70.16 9.0 Not Reported 5.59 NE 4.25 N 8.95 NE x x Other     x x x x x 29.84 Unknown
06/24/2022 08:22 AM 84.02 64.40 21.74 102.92 70.16 9.0 Not Reported 4.92 NE 4.70 N 8.95 NE x x Other     x x x x x 29.84 Unknown
06/24/2022 08:23 AM 84.02 64.22 21.74 102.92 70.16 9.0 Not Reported 5.59 N 6.26 N 8.95 NE x x Other     x x x x x 29.84 Unknown
06/24/2022 08:24 AM 83.84 64.22 21.56 102.92 70.16 9.0 Not Reported 6.49 N 7.16 N 8.95 NE x x Other     x x x x x 29.84 Unknown
06/24/2022 08:25 AM 83.84 64.22 21.56 102.92 70.16 9.0 Not Reported 6.93 N 5.59 N 8.95 NE x x Other     x x x x x 29.84 Unknown
06/24/2022 08:26 AM 83.84 64.22 21.56 102.92 70.16 9.0 Not Reported 7.16 N 7.38 N 9.17 N x x Other     x x x x x 29.84 Unknown
06/24/2022 08:27 AM 83.84 64.40 21.56 102.92 70.16 9.0 Not Reported 6.93 N 7.83 N 9.17 N x x Other     x x x x x 29.84 Unknown
06/24/2022 08:28 AM 83.84 64.22 21.56 102.92 70.16 9.0 Not Reported 7.16 N x N 9.17 N x x Other     x x x x x 29.84 Unknown
06/24/2022 08:29 AM 84.02 64.40 21.74 102.92 70.16 9.0 Not Reported 7.38 N 6.93 N 9.17 N x x Other     x x x x x 29.84 Unknown
06/24/2022 08:30 AM 84.02 64.40 21.74 102.92 70.16 9.0 Not Reported 7.83 N 7.16 N 10.07 N x x Other     x x x x x 29.84 Unknown
06/24/2022 08:31 AM 83.84 64.22 21.56 102.92 70.16 9.0 Not Reported 8.72 N 9.17 N 10.07 N x x Other     x x x x x 29.84 Unknown
06/24/2022 08:32 AM 83.84 64.22 21.56 102.92 70.16 9.0 Not Reported 8.95 N 8.95 N 10.51 N x x Other     x x x x x 29.84 Unknown
06/24/2022 08:33 AM 83.66 64.22 21.38 102.92 70.16 9.0 Not Reported 9.62 N 9.62 N 11.63 N x x Other     x x x x x 29.84 Unknown
06/24/2022 08:34 AM 83.66 64.22 21.38 102.92 70.16 9.0 Not Reported 9.40 N 7.61 N 11.63 N x x Other     x x x x x 29.84 Unknown
06/24/2022 08:35 AM 83.84 64.22 21.56 102.92 70.16 9.0 Not Reported 8.72 N 10.29 N 11.63 N x x Other     x x x x x 29.84 Unknown
06/24/2022 08:36 AM 83.66 64.04 21.38 102.92 70.16 9.0 Not Reported 9.62 N 9.40 N 11.63 N x x Other     x x x x x 29.84 Unknown
06/24/2022 08:37 AM 83.66 64.04 21.38 102.92 70.16 9.0 Not Reported 9.84 N 9.84 N 11.63 N x x Other     x x x x x 29.84 Unknown
06/24/2022 08:38 AM 83.66 64.22 21.38 102.92 70.16 9.0 Not Reported 9.62 N 9.84 N 11.63 N x x Other     x x x x x 29.84 Unknown
06/24/2022 08:39 AM 83.66 64.22 21.38 102.92 70.16 9.0 Not Reported 9.17 N 9.40 N 11.63 N x x Other     x x x x x 29.84 Unknown
06/24/2022 08:40 AM 83.66 64.22 21.38 102.92 70.16 9.0 Not Reported 9.40 N 10.07 N 11.63 N x x Other     x x x x x 29.84 Unknown
06/24/2022 08:41 AM 83.84 64.22 21.38 102.92 70.16 9.0 Not Reported 9.40 N 7.38 N 11.63 N x x Other     x x x x x 29.84 Unknown
06/24/2022 08:42 AM 83.84 64.22 21.56 102.92 70.16 9.0 Not Reported 9.17 N 9.17 N 11.41 N x x Other     x x x x x 29.84 Unknown
06/24/2022 08:43 AM 83.84 64.22 21.56 102.92 70.16 9.0 Not Reported 9.17 N 9.40 N 11.41 N x x Other     x x x x x 29.84 Unknown
06/24/2022 08:44 AM 84.20 64.40 21.74 102.92 70.16 9.0 Not Reported 8.72 N 7.16 N 11.18 N x x Other     x x x x x 29.84 Unknown
06/24/2022 08:45 AM 84.38 64.58 21.92 102.92 70.16 9.0 Not Reported 8.28 N 6.93 N 11.18 N x x Other     x x x x x 29.84 Unknown
06/24/2022 08:46 AM 84.38 64.58 21.92 102.92 70.16 9.0 Not Reported 7.61 N 7.38 N 10.96 N x x Other     x x x x x 29.84 Unknown
06/24/2022 08:47 AM 84.56 64.58 22.10 102.92 70.16 9.0 Not Reported 6.71 N 6.26 N 10.96 N x x Other     x x x x x 29.84 Unknown
06/24/2022 08:48 AM 84.56 64.58 22.10 102.92 70.16 9.0 Not Reported 6.93 N 9.17 N 10.96 N x x Other     x x x x x 29.84 Unknown
06/24/2022 08:49 AM 84.56 64.76 22.10 102.92 70.16 9.0 Not Reported 7.61 N 8.95 N 10.96 N x x Other     x x x x x 29.84 Unknown
06/24/2022 08:50 AM 84.74 64.76 22.10 102.92 70.16 9.0 Not Reported 7.61 N 7.38 NE 10.96 N x x Other     x x x x x 29.84 Unknown
06/24/2022 08:51 AM 84.74 64.76 22.10 102.92 70.16 9.0 Not Reported 7.61 N 7.16 N 10.51 N x x Other     x x x x x 29.84 Unknown
06/24/2022 08:52 AM 84.74 64.76 22.10 102.92 70.16 9.0 Not Reported 8.28 N 8.28 N 10.07 N x x Other     x x x x x 29.84 Unknown
06/24/2022 08:53 AM 84.56 64.58 22.10 102.92 70.16 9.0 Not Reported 7.83 N 4.70 NE 10.07 N x x Other     x x x x x 29.84 Unknown
06/24/2022 08:54 AM 84.74 64.76 22.10 102.92 70.16 9.0 Not Reported 7.16 N 5.82 N 10.07 N x x Other     x x x x x 29.84 Unknown
06/24/2022 08:55 AM 84.74 64.76 22.10 102.92 70.16 9.0 Not Reported 7.16 N 7.38 N 10.07 N x x Other     x x x x x 29.84 Unknown
06/24/2022 08:56 AM 84.56 64.58 22.10 102.92 70.16 9.0 Not Reported 6.49 N 4.70 N 10.07 N x x Other     x x x x x 29.84 Unknown
06/24/2022 08:57 AM 84.74 64.76 22.10 102.92 70.16 9.0 Not Reported 6.26 N 7.16 N 10.07 N x x Other     x x x x x 29.84 Unknown
06/24/2022 08:58 AM 84.74 64.76 22.10 102.92 70.16 9.0 Not Reported 7.16 N 5.14 N 10.07 N x x Other     x x x x x 29.84 Unknown
06/24/2022 08:59 AM 84.74 64.76 22.28 102.92 70.16 9.0 Not Reported 7.16 N 7.16 N 10.07 N x x Other     x x x x x 29.84 Unknown
06/24/2022 09:00 AM 84.92 64.76 22.46 102.92 70.16 9.0 Not Reported 6.93 N 7.61 N 10.07 N x x Other     x x x x x 29.84 Unknown
06/24/2022 09:01 AM 85.10 64.94 22.46 102.92 70.16 9.0 Not Reported 6.71 N 7.61 N 9.84 N x x Other     x x x x x 29.84 Unknown
06/24/2022 09:02 AM 85.28 64.94 22.64 102.92 70.16 9.0 Not Reported 7.16 N 8.50 N 9.84 N x x Other     x x x x x 29.84 Unknown
06/24/2022 09:03 AM 85.28 64.94 22.64 102.92 70.16 9.0 Not Reported 7.38 N 5.37 N 9.84 N x x Other     x x x x x 29.84 Unknown
06/24/2022 09:04 AM 85.28 64.94 22.64 102.92 70.16 9.0 Not Reported 7.38 N 6.26 N 9.84 N x x Other     x x x x x 29.84 Unknown
06/24/2022 09:05 AM 85.10 64.94 22.46 102.92 70.16 9.0 Not Reported 7.16 N 7.38 NE 9.84 N x x Other     x x x x x 29.84 Unknown
06/24/2022 09:06 AM 85.10 64.94 22.46 102.92 70.16 9.0 Not Reported 7.61 N 7.61 N 9.84 N x x Other     x x x x x 29.84 Unknown
06/24/2022 09:07 AM 85.28 64.94 22.64 102.92 70.16 9.0 Not Reported 7.16 N 7.38 N 9.84 N x x Other     x x x x x 29.84 Unknown
06/24/2022 09:08 AM 85.28 64.94 22.64 102.92 70.16 9.0 Not Reported 6.49 N 7.38 N 8.95 N x x Other     x x x x x 29.84 Unknown
06/24/2022 09:09 AM 85.46 65.12 22.64 102.92 70.16 9.0 Not Reported 7.16 NE 6.26 NE 8.95 N x x Other     x x x x x 29.84 Unknown
06/24/2022 09:10 AM 85.64 65.12 22.82 102.92 70.16 9.0 Not Reported 6.93 NE 4.25 N 8.95 N x x Other     x x x x x 29.84 Unknown
06/24/2022 09:11 AM 85.64 65.30 23.00 102.92 70.16 9.0 Not Reported 6.93 NE 8.05 NE 8.95 N x x Other     x x x x x 29.84 Unknown
06/24/2022 09:12 AM 86.00 65.48 23.18 102.92 70.16 9.0 Not Reported 7.61 NE 7.83 NE 9.17 NE x x Other     x x x x x 29.84 Unknown
06/24/2022 09:13 AM 86.00 65.48 23.18 102.92 70.16 9.0 Not Reported 7.61 NE 8.05 N 9.62 N x x Other     x x x x x 29.84 Unknown
06/24/2022 09:14 AM 86.18 65.48 23.36 102.92 70.16 9.0 Not Reported 7.38 N 7.38 N 9.62 N x x Other     x x x x x 29.84 Unknown
06/24/2022 09:15 AM 86.36 65.48 23.36 102.92 70.16 9.0 Not Reported 7.38 N 6.93 N 9.62 N x x Other     x x x x x 29.84 Unknown
06/24/2022 09:16 AM 86.36 65.48 23.36 102.92 70.16 9.0 Not Reported 7.16 N 5.59 N 9.62 N x x Other     x x x x x 29.84 Unknown
06/24/2022 09:17 AM 86.18 65.48 23.36 102.92 70.16 9.0 Not Reported 6.26 N 6.04 N 9.62 N x x Other     x x x x x 29.84 Unknown
06/24/2022 09:18 AM 86.36 65.48 23.36 102.92 70.16 9.0 Not Reported 5.82 N 7.16 N 9.62 N x x Other     x x x x x 29.84 Unknown
06/24/2022 09:19 AM 86.36 65.48 23.36 102.92 70.16 9.0 Not Reported 5.59 N 4.25 N 9.62 N x x Other     x x x x x 29.84 Unknown
06/24/2022 09:20 AM 86.36 65.48 23.36 102.92 70.16 9.0 Not Reported 5.59 N 5.37 NE 9.62 N x x Other     x x x x x 29.84 Unknown
06/24/2022 09:21 AM 86.36 65.66 23.36 102.92 70.16 9.0 Not Reported 5.82 N 5.82 N 9.62 N x x Other     x x x x x 29.84 Unknown
06/24/2022 09:22 AM 86.54 65.66 23.54 102.92 70.16 9.0 Not Reported 5.82 N 4.92 NE 9.62 N x x Other     x x x x x 29.84 Unknown
06/24/2022 09:23 AM 86.54 65.66 23.54 102.92 70.16 9.0 Not Reported 5.59 N 6.04 N 8.50 NE x x Other     x x x x x 29.84 Unknown
06/24/2022 09:24 AM 86.54 65.66 23.54 102.92 70.16 9.0 Not Reported 6.04 N 5.82 N 8.05 N x x Other     x x x x x 29.84 Unknown
06/24/2022 09:25 AM 86.54 65.66 23.54 102.92 70.16 9.0 Not Reported 6.49 N 7.16 N 8.05 N x x Other     x x x x x 29.84 Unknown
06/24/2022 09:26 AM 86.72 65.66 23.72 102.92 70.16 9.0 Not Reported 6.26 N 5.82 N 8.05 N x x Other     x x x x x 29.84 Unknown
06/24/2022 09:27 AM 86.72 65.84 23.72 102.92 70.16 9.0 Not Reported 6.04 NE 6.49 N 8.05 N x x Other     x x x x x 29.84 Unknown
06/24/2022 09:28 AM 86.72 65.84 23.72 102.92 70.16 9.0 Not Reported 6.49 N 8.50 N 8.50 N x x Other     x x x x x 29.84 Unknown
06/24/2022 09:29 AM 86.72 65.84 23.72 102.92 70.16 9.0 Not Reported 6.93 N 6.93 N 8.95 N x x Other     x x x x x 29.84 Unknown
06/24/2022 09:30 AM 86.90 65.84 23.90 102.92 70.16 9.0 Not Reported 7.16 N 6.26 N 8.95 N x x Other     x x x x x 29.84 Unknown
06/24/2022 09:31 AM 87.26 66.02 24.08 102.92 70.16 9.0 Not Reported 6.04 N 6.26 N 8.95 N x x Other     x x x x x 29.84 Unknown
06/24/2022 09:32 AM 87.44 66.20 24.26 102.92 70.16 9.0 Not Reported 6.04 N 8.28 NE 8.95 N x x Other     x x x x x 29.84 Unknown
06/24/2022 09:33 AM 87.62 66.20 24.26 102.92 70.16 9.0 Not Reported 7.16 N 7.83 NE 8.95 N x x Other     x x x x x 29.84 Unknown
06/24/2022 09:34 AM 87.62 66.20 24.26 102.92 70.16 9.0 Not Reported 6.71 N 5.82 N 8.95 N x x Other     x x x x x 29.84 Unknown
06/24/2022 09:35 AM 87.62 66.20 24.26 102.92 70.16 9.0 Not Reported 5.59 N 5.59 NE 8.95 N x x Other     x x x x x 29.84 Unknown
06/24/2022 09:36 AM 87.62 66.20 24.44 102.92 70.16 9.0 Not Reported 5.59 N 4.47 NE 8.95 N x x Other     x x x x x 29.84 Unknown
06/24/2022 09:37 AM 87.98 66.38 24.62 102.92 70.16 9.0 Not Reported 6.04 NE 6.93 NE 8.95 N x x Other     x x x x x 29.84 Unknown
06/24/2022 09:38 AM 87.98 66.38 24.62 102.92 70.16 9.0 Not Reported 5.59 NE 3.36 NE 8.95 N x x Other     x x x x x 29.84 Unknown
06/24/2022 09:39 AM 88.16 66.56 24.80 102.92 70.16 9.0 Not Reported 5.37 NE 4.92 NE 8.95 N x x Other     x x x x x 29.84 Unknown
06/24/2022 09:40 AM 88.16 66.56 24.80 102.92 70.16 9.0 Not Reported 4.92 NE 3.80 N 8.95 N x x Other     x x x x x 29.84 Unknown
06/24/2022 09:41 AM 88.34 66.56 24.98 102.92 70.16 9.0 Not Reported 5.14 NE 5.82 N 8.95 N x x Other     x x x x x 29.84 Unknown
06/24/2022 09:42 AM 88.34 66.56 24.98 102.92 70.16 9.0 Not Reported 5.82 N 6.93 N 8.05 N x x Other     x x x x x 29.84 Unknown
06/24/2022 09:43 AM 88.52 66.74 24.98 102.92 70.16 9.0 Not Reported 6.04 N 6.26 N 8.05 N x x Other     x x x x x 29.84 Unknown
06/24/2022 09:44 AM 88.34 66.56 24.98 102.92 70.16 9.0 Not Reported 6.49 N 7.61 NE 8.50 N x x Other     x x x x x 29.84 Unknown
06/24/2022 09:45 AM 88.34 66.56 24.98 102.92 70.16 9.0 Not Reported 6.71 NE 6.71 N 8.95 N x x Other     x x x x x 29.84 Unknown
06/24/2022 09:46 AM 88.34 66.56 24.98 102.92 70.16 9.0 Not Reported 6.04 N 5.59 N 8.95 N x x Other     x x x x x 29.84 Unknown
06/24/2022 09:47 AM 88.52 66.74 24.98 102.92 70.16 9.0 Not Reported 5.14 N 4.47 N 8.95 N x x Other     x x x x x 29.84 Unknown
06/24/2022 09:48 AM 88.52 66.74 24.98 102.92 70.16 9.0 Not Reported 4.70 N 2.68 N 8.95 N x x Other     x x x x x 29.84 Unknown
06/24/2022 09:49 AM 88.52 66.74 24.98 102.92 70.16 9.0 Not Reported 5.37 N 6.49 N 8.95 N x x Other     x x x x x 29.84 Unknown
06/24/2022 09:50 AM 88.52 66.74 24.98 102.92 70.16 9.0 Not Reported 6.93 N 6.71 N 9.62 N x x Other     x x x x x 29.84 Unknown
06/24/2022 09:51 AM 88.70 66.92 25.34 102.92 70.16 9.0 Not Reported 6.93 N 4.92 NE 9.62 N x x Other     x x x x x 29.84 Unknown
06/24/2022 09:52 AM 88.88 66.92 25.34 102.92 70.16 9.0 Not Reported 5.82 N 5.14 N 9.62 N x x Other     x x x x x 29.84 Unknown
06/24/2022 09:53 AM 89.06 66.92 25.52 102.92 70.16 9.0 Not Reported 4.92 NE 5.59 NE 9.62 N x x Other     x x x x x 29.84 Unknown
06/24/2022 09:54 AM 89.06 66.92 25.52 102.92 70.16 9.0 Not Reported 4.47 NE 4.92 E 9.62 N x x Other     x x x x x 29.84 Unknown
06/24/2022 09:55 AM 89.24 67.10 25.52 102.92 70.16 9.0 Not Reported 4.47 NE 6.93 NE 9.62 N x x Other     x x x x x 29.84 Unknown
06/24/2022 09:56 AM 89.42 67.10 25.70 102.92 70.16 9.0 Not Reported 5.59 NE 6.71 N 9.62 N x x Other     x x x x x 29.84 Unknown
06/24/2022 09:57 AM 89.42 67.10 25.70 102.92 70.16 9.0 Not Reported 6.04 N 5.82 N 9.62 N x x Other     x x x x x 29.84 Unknown
06/24/2022 09:58 AM 89.42 67.28 25.70 102.92 70.16 9.0 Not Reported 5.82 N 3.36 N 9.62 N x x Other     x x x x x 29.84 Unknown
06/24/2022 09:59 AM 89.60 67.28 25.88 102.92 70.16 9.0 Not Reported 5.59 NE 4.92 NE 8.95 N x x Other     x x x x x 29.84 Unknown
06/24/2022 10:00 AM 89.60 67.28 25.88 102.92 70.16 9.0 Not Reported 6.49 NE 6.49 NE 8.50 N x x Other     x x x x x 29.84 Unknown
06/24/2022 10:01 AM 89.78 67.46 26.06 102.92 70.16 9.0 Not Reported 6.93 NE 6.04 N 9.84 NE x x Other     x x x x x 29.84 Unknown
06/24/2022 10:02 AM 89.60 67.28 25.88 102.92 70.16 9.0 Not Reported 6.04 N 3.13 N 9.84 NE x x Other     x x x x x 29.84 Unknown
06/24/2022 10:03 AM 89.42 67.10 25.70 102.92 70.16 9.0 Not Reported 5.59 N 4.70 NE 9.84 NE x x Other     x x x x x 29.84 Unknown
06/24/2022 10:04 AM 89.42 67.10 25.70 102.92 70.16 9.0 Not Reported 4.47 N 0.89 E 9.84 NE x x Other     x x x x x 29.84 Unknown
06/24/2022 10:05 AM 89.42 67.28 25.70 102.92 70.16 9.0 Not Reported 2.68 N 6.26 NE 9.84 NE x x Other     x x x x x 29.84 Unknown
06/24/2022 10:06 AM 89.78 67.46 26.06 102.92 70.16 9.0 Not Reported 3.80 NE 3.36 NE 9.84 NE x x Other     x x x x x 29.84 Unknown
06/24/2022 10:07 AM 90.14 67.46 26.24 102.92 70.16 9.0 Not Reported 4.70 NE 4.70 NE 9.84 NE x x Other     x x x x x 29.84 Unknown
06/24/2022 10:08 AM 90.50 67.64 26.60 102.92 70.16 9.0 Not Reported 4.25 NE 4.03 NE 9.84 NE x x Other     x x x x x 29.84 Unknown
06/24/2022 10:09 AM 90.50 67.82 26.60 102.92 70.16 9.0 Not Reported 4.70 NE 5.59 N 9.84 NE x x Other     x x x x x 29.84 Unknown
06/24/2022 10:10 AM 90.68 67.82 26.78 102.92 70.16 9.0 Not Reported 4.47 N 4.25 N 7.83 N x x Other     x x x x x 29.84 Unknown
06/24/2022 10:11 AM 90.86 68.00 26.78 102.92 70.16 9.0 Not Reported 4.47 N 3.36 N 7.83 N x x Other     x x x x x 29.84 Unknown
06/24/2022 10:12 AM 91.04 68.00 26.96 102.92